ECMWFFLT1_925_spd_000.txt.gz
Wind_Speed
20 24 24 20 18 18 18 20 20 21 20 19 16 13 11 13 13 14 15 17 21 24 26 29 30 30 31 34 35 38 38 36 36 34 30 30 29 28 31 31 27 18 13 15 17 12 4 2 9 15 19 22 23 24 21 18 16 16 15 15 15 16 16
22 24 25 24 20 18 19 20 20 21 21 20 18 16 13 13 15 16 16 17 20 23 27 29 31 32 33 34 34 36 36 35 38 37 32 33 33 30 30 31 28 22 16 15 19 19 9 4 4 5 12 15 17 22 23 20 18 17 16 15 15 16 16
24 25 25 25 23 19 18 18 19 21 22 21 20 18 16 14 14 16 18 19 19 21 25 28 30 32 34 36 36 37 37 36 37 36 34 35 36 33 33 33 29 24 18 12 15 19 12 7 5 4 11 13 10 15 20 21 20 18 18 16 15 17 17
23 24 24 24 24 22 20 18 18 19 20 21 21 21 19 16 16 16 18 20 20 20 23 26 28 30 32 35 37 38 40 39 38 36 35 35 34 34 35 35 33 30 25 17 17 21 14 8 6 4 10 13 11 12 14 17 19 18 17 17 16 17 17
21 22 23 23 23 22 21 19 17 17 17 18 20 21 21 18 18 18 19 20 22 22 22 25 27 29 30 33 36 38 40 42 41 37 33 32 32 34 35 37 36 33 32 27 23 24 21 16 12 6 8 13 10 9 12 13 14 15 16 16 16 17 17
18 19 21 22 22 21 20 20 19 17 16 17 18 20 21 20 19 20 21 22 23 23 22 23 25 27 29 32 35 38 40 42 43 41 36 35 35 36 36 36 35 34 34 32 27 25 24 23 18 10 11 15 12 8 10 14 13 11 12 15 16 17 17
18 18 18 19 21 21 21 22 22 20 19 19 19 20 22 21 20 20 22 24 24 24 24 24 24 24 27 31 34 38 41 42 43 43 42 39 36 36 36 35 35 36 36 34 31 29 26 25 22 15 12 12 12 11 9 12 15 11 9 11 14 16 17
19 19 18 18 19 21 22 23 24 24 23 23 22 22 23 22 21 21 22 24 25 26 27 26 25 24 26 29 33 37 40 41 42 42 43 41 37 36 36 36 37 36 35 34 34 32 29 27 26 24 19 10 6 8 7 9 13 12 11 11 10 14 17
19 19 19 19 20 21 23 25 28 28 27 27 25 24 23 21 21 21 22 24 25 27 28 28 28 26 25 27 31 34 37 39 41 42 42 42 41 39 39 38 37 35 35 35 35 33 31 29 28 28 27 19 10 6 5 7 8 8 13 15 10 10 17
19 20 21 22 22 22 23 24 27 28 27 27 25 24 23 22 21 20 21 23 25 26 28 30 29 28 27 27 29 32 34 37 40 42 43 42 41 40 40 40 38 36 35 35 35 35 32 31 29 29 30 28 21 11 5 7 7 7 12 16 13 12 16
20 21 23 24 24 23 23 23 24 25 26 25 25 25 24 23 21 20 21 23 25 26 28 30 30 29 28 28 29 31 33 36 37 39 41 42 41 40 39 39 39 36 35 36 36 36 33 32 31 30 30 32 30 22 11 7 7 10 16 16 15 17 20
20 22 24 25 26 25 24 24 24 25 26 24 24 24 24 24 23 21 22 23 25 26 28 30 30 29 28 28 29 29 31 35 37 37 39 41 40 39 38 38 37 36 35 36 37 35 34 33 31 31 31 32 34 31 24 14 7 10 19 20 17 19 23
21 23 24 26 27 26 25 24 24 25 25 24 23 23 23 24 24 23 22 23 25 27 28 30 31 30 28 28 29 29 29 32 36 39 40 41 41 39 37 36 35 36 36 36 36 36 35 34 32 32 32 32 34 33 30 21 10 8 16 24 23 20 23
23 24 25 26 27 27 27 25 24 25 24 24 24 24 24 24 24 25 24 24 26 28 29 30 31 31 30 29 29 29 29 31 34 38 39 41 42 40 39 38 36 37 38 37 37 36 36 35 34 33 33 34 34 33 30 23 15 11 11 19 25 23 26
24 25 26 26 27 27 27 26 25 25 25 25 25 25 26 25 25 27 28 28 29 30 31 31 31 32 32 31 30 30 30 31 34 37 37 39 40 40 40 41 40 39 39 39 38 37 37 36 34 34 35 35 33 32 31 27 20 16 15 18 24 26 29
25 26 26 26 27 27 27 27 26 25 26 25 25 25 26 26 27 27 29 30 31 31 32 32 32 32 32 32 31 31 31 31 32 35 38 39 40 39 39 41 42 42 40 40 39 39 38 37 35 34 34 36 36 32 30 30 27 22 20 21 26 30 32
26 27 27 27 27 27 27 28 27 26 26 27 26 25 26 27 27 28 29 31 31 32 33 34 33 32 33 33 32 32 32 32 33 35 38 41 41 40 39 40 42 42 41 40 40 39 38 36 35 34 33 35 39 34 29 30 33 31 27 24 25 31 34
26 26 26 27 28 28 28 28 27 27 27 28 28 27 27 28 28 30 31 32 32 33 34 35 34 33 33 34 33 33 33 33 34 36 38 41 42 42 41 42 44 43 41 41 40 39 38 36 35 34 33 34 36 35 32 30 33 35 33 29 26 27 31
25 26 27 27 28 29 28 28 28 28 28 29 29 29 28 29 29 30 32 32 33 34 35 36 37 35 34 34 35 35 35 34 35 36 39 41 43 44 45 45 45 43 41 41 41 39 38 37 35 32 33 34 35 35 34 32 32 34 35 33 31 30 31
25 26 27 28 29 29 29 29 30 30 30 30 30 30 30 30 30 31 32 33 34 35 36 37 38 37 35 35 35 36 36 35 35 37 39 41 43 44 45 46 45 44 43 42 42 41 38 37 36 34 33 35 36 36 35 34 33 33 34 33 31 30 31
26 27 28 29 30 31 31 31 31 31 32 31 31 31 31 32 33 33 33 34 34 35 36 37 38 38 35 35 36 37 37 37 36 37 39 41 43 45 45 45 46 46 45 44 43 43 41 39 38 36 35 36 38 37 37 36 35 34 34 33 30 30 30
27 27 28 30 32 33 32 32 32 32 33 33 32 32 32 34 34 34 35 36 36 36 37 39 40 38 36 35 36 37 38 38 38 37 39 41 42 45 44 43 44 45 45 45 45 44 43 42 40 38 36 37 39 39 38 37 35 34 32 30 28 29 28
27 27 29 31 33 33 32 32 33 33 33 34 33 33 33 34 34 35 37 37 37 39 40 41 41 39 37 35 35 36 37 38 39 39 39 40 41 42 43 42 44 45 44 45 45 44 45 44 43 42 40 40 41 42 39 36 35 36 35 31 30 32 29
27 27 30 32 32 33 33 33 33 33 34 34 34 34 34 34 34 35 38 38 38 39 41 42 41 40 39 37 36 37 36 37 39 39 40 41 41 41 41 41 43 43 43 44 44 43 43 44 43 42 42 44 46 47 45 41 38 37 35 30 30 32 30
27 28 31 32 32 33 33 33 33 34 33 33 33 33 33 33 34 35 36 37 38 39 41 42 41 40 39 38 38 38 37 37 38 38 40 41 42 42 42 41 41 41 41 42 42 42 41 41 40 39 40 43 47 48 49 48 46 43 40 35 32 31 31
28 30 31 32 32 33 33 33 33 33 33 32 31 32 32 33 34 34 35 37 38 38 40 40 40 40 40 39 40 40 39 37 36 37 40 41 42 44 44 42 41 40 39 38 38 39 39 37 35 36 38 41 43 44 45 46 46 46 45 42 40 39 38
30 31 31 32 32 32 33 33 33 33 32 31 30 30 32 32 33 33 34 36 38 39 40 40 40 40 41 40 41 41 40 36 34 37 42 43 44 45 46 44 41 40 39 37 36 37 38 38 37 37 38 38 38 38 38 38 39 40 40 40 41 42 42
30 31 31 31 31 31 32 33 33 32 31 30 29 29 30 30 31 32 33 34 37 38 39 39 39 40 41 41 42 43 40 35 34 38 42 46 48 48 48 46 43 41 40 38 36 37 39 40 40 39 37 36 34 32 32 32 34 35 36 35 36 38 39
30 31 31 30 30 30 31 32 32 32 30 30 29 28 28 29 30 31 32 34 36 37 37 38 39 39 41 41 42 43 40 36 35 36 38 43 47 48 48 47 44 42 41 39 37 39 41 42 41 40 37 34 31 29 27 25 26 28 30 31 29 30 32
31 31 30 29 30 31 32 33 32 31 29 29 30 29 30 30 30 30 32 34 35 34 34 36 36 36 40 43 43 41 38 35 35 36 36 38 43 46 46 47 47 44 41 41 40 41 43 44 43 42 39 35 32 29 25 22 21 22 24 25 24 24 26
30 31 29 29 30 32 33 33 31 30 29 30 32 32 31 30 31 31 30 32 33 32 31 30 28 29 37 43 42 39 37 35 35 37 35 32 37 42 42 43 46 44 42 44 45 45 46 47 47 46 43 39 35 32 30 27 26 25 24 24 25 26 26
30 29 29 29 30 32 33 32 30 29 30 30 31 33 32 30 30 29 27 29 31 30 28 26 23 25 34 43 42 37 37 36 35 35 35 32 32 36 37 37 41 43 43 46 47 47 48 50 50 48 46 43 40 37 35 35 36 37 35 34 33 31 28
30 28 28 29 30 32 33 32 30 29 28 27 26 28 28 22 16 13 15 20 24 24 24 24 23 24 32 40 41 39 39 39 37 37 37 36 35 34 33 35 39 43 46 49 50 50 50 51 52 51 49 47 45 42 41 41 41 41 40 38 35 32 30
29 27 28 29 30 31 32 31 28 26 26 26 18 9 10 12 13 13 12 12 14 16 19 22 23 25 30 36 39 40 41 41 40 40 39 38 38 38 37 37 39 43 47 48 48 48 48 48 50 50 49 49 49 47 46 44 42 40 40 38 36 34 31
28 28 29 32 31 32 33 31 27 26 29 29 22 11 13 19 20 19 17 14 13 12 15 20 23 26 30 34 37 38 40 41 42 42 40 36 37 39 40 40 41 43 47 47 44 42 43 44 45 45 44 47 50 49 47 46 43 42 41 40 38 35 32
27 28 31 35 33 32 33 30 26 27 31 31 25 20 16 17 20 21 20 18 17 16 17 19 23 26 29 33 35 35 35 37 40 44 43 39 38 38 39 41 43 44 46 45 42 40 42 43 43 43 44 48 50 49 48 47 45 44 43 40 39 37 33
25 28 31 35 35 33 33 31 26 26 29 30 25 21 18 17 17 19 20 20 20 20 20 20 22 25 27 30 32 32 32 33 37 40 42 41 40 40 40 42 43 42 42 42 40 39 40 41 42 45 48 50 49 48 48 47 45 44 42 39 37 36 34

ECMWFFLT1_925_spd_003.txt.gz
Wind_Speed
9 11 11 11 11 11 12 11 10 9 8 8 9 9 9 8 10 12 14 15 16 17 20 22 25 30 34 37 40 40 37 36 37 34 26 22 24 25 25 26 23 17 13 11 11 9 5 5 10 13 15 15 17 17 16 16 15 14 15 14 13 14 16
10 12 12 12 11 11 12 12 11 10 9 8 8 9 10 10 10 11 13 15 17 19 20 21 25 28 32 34 35 38 37 35 36 38 31 26 28 26 22 24 24 21 20 17 15 14 10 6 6 9 13 14 14 17 17 16 16 16 15 14 14 14 16
11 12 12 13 12 11 12 12 12 11 11 9 8 8 9 11 11 12 12 14 16 19 21 22 24 27 29 32 33 35 37 36 36 37 36 33 30 26 24 24 23 23 22 20 19 17 13 9 7 7 13 14 13 15 16 15 15 16 15 14 15 15 16
12 12 12 13 13 13 13 13 12 12 12 11 10 10 9 10 11 12 12 13 15 17 19 22 25 27 28 29 31 34 37 38 40 40 40 38 32 27 27 27 25 26 25 22 21 20 15 11 8 7 11 15 14 13 14 14 14 14 14 14 16 16 17
10 11 11 13 14 14 14 14 13 13 13 13 12 12 11 10 10 11 11 13 15 17 18 19 23 26 28 28 31 36 38 39 42 41 40 41 37 32 31 31 29 27 27 25 22 20 19 16 12 8 9 13 13 12 12 12 12 13 14 14 14 14 14
9 10 10 12 12 13 14 14 15 15 15 15 14 14 13 12 12 12 12 12 13 16 18 19 20 23 26 28 30 34 38 39 40 40 41 42 41 37 35 34 30 27 27 27 23 21 21 19 15 11 10 12 11 12 13 13 12 12 12 12 12 11 11
8 9 10 11 11 12 13 15 16 16 16 17 16 16 15 14 14 14 15 15 14 16 18 20 21 21 23 27 29 30 33 36 39 41 41 42 42 40 38 35 31 29 28 28 25 23 22 20 18 14 12 11 11 13 13 15 16 13 9 9 10 11 12
7 8 9 10 11 12 13 15 16 16 17 18 18 18 17 16 17 17 17 17 17 16 17 19 21 21 21 23 27 29 29 31 37 41 42 41 41 41 41 38 36 34 30 27 28 26 25 23 21 19 15 10 9 11 12 14 17 16 13 10 11 14 15
7 8 9 10 11 12 14 15 16 17 18 19 19 19 18 17 17 17 17 17 17 17 17 18 18 20 21 21 23 26 27 28 32 38 41 41 41 41 41 40 38 37 32 27 28 28 27 26 23 22 20 15 10 9 10 12 14 14 15 14 12 15 16
7 9 10 11 12 13 14 15 17 17 18 19 19 19 19 18 17 18 18 18 18 18 18 18 18 19 21 21 21 23 25 27 29 34 40 42 42 42 41 39 38 38 35 28 27 28 27 27 26 24 23 21 17 12 9 10 12 12 15 15 13 14 16
8 9 10 12 13 14 15 16 17 18 18 18 19 20 20 19 19 18 19 19 19 19 19 19 19 19 19 21 22 22 24 26 29 32 36 41 44 43 40 39 38 38 38 33 29 29 29 28 28 27 25 25 23 18 13 10 11 14 18 16 13 16 20
8 10 11 12 13 14 16 16 17 18 19 19 19 20 20 20 20 19 19 19 19 20 20 20 20 19 20 21 21 22 23 24 28 31 32 37 42 43 41 40 39 37 37 35 31 30 30 30 31 30 28 27 26 24 20 13 10 14 20 18 15 18 22
9 11 12 13 14 15 16 16 17 18 19 19 19 20 20 21 21 20 20 20 20 20 20 21 20 20 21 21 22 23 23 23 26 28 30 33 38 43 44 43 43 40 37 35 33 31 30 31 33 32 30 29 28 26 24 20 13 12 16 19 20 21 23
11 12 13 14 15 17 17 16 17 17 18 20 20 20 21 22 22 22 21 21 22 22 22 22 21 21 22 22 22 23 24 24 25 26 27 29 33 39 44 45 44 43 41 37 34 32 31 31 32 33 32 30 29 27 26 24 17 11 13 15 21 24 26
13 14 14 16 17 17 17 17 17 17 19 20 21 21 21 22 22 22 23 23 23 23 24 24 23 23 23 24 23 24 25 25 26 25 25 27 30 33 39 43 42 42 43 40 36 34 34 32 32 34 33 31 29 28 27 27 19 14 15 14 18 23 27
14 15 16 18 18 18 18 18 18 19 20 20 21 22 22 22 23 23 23 24 24 25 25 25 25 25 25 25 25 25 25 26 27 27 26 27 28 30 34 38 41 41 41 41 38 36 34 32 33 36 35 32 30 27 27 29 23 16 17 16 18 22 26
15 16 18 20 21 21 22 21 20 21 22 22 22 23 23 23 24 25 26 26 26 26 26 25 26 27 27 28 28 27 26 27 29 29 28 27 28 30 33 35 38 40 40 40 39 37 35 32 33 36 34 32 31 27 26 27 25 22 21 18 18 21 24
16 17 20 22 22 23 24 24 23 23 24 24 24 24 24 24 25 26 27 27 27 27 27 27 27 27 27 28 29 29 28 28 29 30 30 29 28 30 33 34 35 38 39 38 39 39 38 34 32 34 34 31 29 27 25 24 26 28 26 23 21 21 22
17 18 20 22 23 25 26 26 25 26 27 26 26 25 25 25 26 27 27 27 28 28 28 28 28 28 28 28 29 30 30 29 29 31 31 31 30 30 33 35 36 38 39 39 39 41 41 37 32 31 32 31 28 26 25 24 25 29 29 28 27 25 25
18 19 20 22 23 25 26 26 27 27 27 28 28 27 26 27 27 28 28 28 28 29 29 29 30 29 29 29 29 29 30 30 30 31 32 32 31 31 32 35 37 40 41 41 43 42 42 41 35 30 31 31 27 26 28 26 26 27 29 29 28 27 28
18 20 22 24 24 24 26 29 30 28 27 28 30 29 28 28 29 29 29 30 29 29 30 30 31 31 30 31 31 30 31 32 32 31 32 33 33 32 33 34 38 42 43 43 45 45 43 43 38 32 32 32 28 29 31 29 26 25 27 29 28 28 27
19 21 23 25 24 25 27 29 29 28 27 28 30 30 29 29 30 31 31 31 31 30 30 31 31 32 31 31 31 31 31 33 33 31 32 33 33 33 33 34 38 43 44 43 45 46 45 44 41 36 34 32 30 31 32 31 29 26 25 23 22 25 25
20 22 23 24 24 25 27 27 27 27 28 29 29 29 29 30 31 31 32 33 33 32 32 32 33 34 35 33 31 31 31 32 33 31 31 33 33 34 34 34 39 43 43 43 45 46 46 45 44 41 37 34 33 34 33 33 32 31 29 23 23 29 27
20 22 23 24 25 26 27 28 28 29 30 30 30 30 30 31 31 31 32 33 34 35 34 33 34 36 38 38 36 34 31 31 32 31 32 33 33 33 32 33 39 42 42 44 46 48 48 47 46 44 39 36 37 37 37 35 33 34 32 27 28 33 31
21 23 24 26 27 27 28 29 29 30 31 31 32 32 31 32 32 31 31 32 34 36 36 36 36 37 38 39 40 40 36 32 31 31 33 33 33 32 31 33 39 40 40 43 45 47 49 47 47 46 41 39 39 40 42 41 38 38 38 34 32 31 31
22 24 26 27 28 27 28 29 29 30 31 32 33 33 33 33 33 32 32 33 34 35 36 36 37 38 40 40 41 43 41 36 33 32 32 33 33 32 31 33 37 37 37 40 42 45 48 48 47 46 41 38 38 40 42 44 43 43 45 45 42 39 39
22 25 28 28 27 27 28 28 29 29 30 31 31 32 32 33 33 33 33 33 34 35 36 36 37 39 41 42 43 44 43 39 35 33 33 33 33 33 33 33 34 35 37 39 41 43 44 44 44 42 39 37 38 40 41 42 43 43 45 47 47 47 49
22 27 28 27 26 27 28 28 29 30 29 29 29 30 31 32 33 33 33 33 34 34 35 36 37 39 40 42 43 44 43 39 37 36 34 33 33 34 36 35 34 36 38 39 41 42 41 41 39 37 35 35 36 37 37 38 40 40 41 43 45 47 47
23 27 28 26 26 27 28 29 30 29 29 28 28 29 30 31 32 33 33 33 33 34 35 36 38 39 41 41 43 44 43 40 38 37 35 34 35 36 37 36 36 38 40 40 41 41 41 40 37 35 34 34 33 33 32 33 36 37 37 38 39 40 40
23 27 27 26 26 27 28 29 29 27 27 26 27 28 30 31 31 32 33 33 32 33 34 36 39 40 41 42 43 44 42 39 38 39 36 33 34 34 33 36 39 40 41 42 42 41 41 39 36 36 36 35 33 32 29 28 29 30 30 31 32 33 35
21 26 26 25 26 27 28 29 28 26 25 27 28 30 30 31 31 32 32 33 33 32 32 34 36 39 40 42 43 43 39 36 37 38 35 31 30 29 29 34 41 43 44 45 44 42 43 41 37 38 39 37 35 32 30 28 28 26 24 24 25 25 26
20 24 25 24 25 28 29 28 27 26 27 29 31 31 30 29 31 32 32 32 32 32 33 33 34 36 37 40 43 41 37 35 36 34 31 29 29 29 29 33 40 44 45 46 45 44 44 43 41 40 41 40 38 35 33 33 33 32 30 27 26 25 26
19 22 23 23 25 27 28 28 29 30 30 31 31 30 27 25 26 27 27 28 28 29 31 31 32 34 36 39 43 41 37 36 36 30 26 28 28 28 29 31 36 41 44 46 46 45 44 45 44 43 43 43 42 39 36 36 36 36 36 35 34 34 34
17 19 20 22 24 28 29 30 31 32 32 31 30 27 24 21 20 18 17 20 23 26 27 27 27 31 35 37 41 42 39 37 33 26 24 26 28 29 29 30 33 38 41 44 46 46 45 44 44 45 44 44 43 42 41 40 39 39 40 41 41 40 39
15 16 19 21 25 31 32 31 31 32 31 29 27 25 21 18 16 14 10 10 15 19 22 23 24 28 33 35 39 42 39 33 30 28 27 26 27 29 30 31 33 36 39 42 45 45 44 43 43 44 43 42 42 43 44 45 44 46 47 46 44 42 38
15 15 19 24 27 32 34 32 31 31 29 27 25 23 20 18 15 13 12 9 7 10 14 18 20 22 27 32 37 41 38 30 29 34 34 30 28 29 30 32 34 35 38 42 44 43 42 41 41 41 40 40 42 44 46 48 49 50 49 46 43 39 33
18 16 19 25 29 31 33 32 30 29 27 26 24 22 20 17 15 14 13 13 9 4 7 12 15 17 20 24 29 34 34 30 30 33 33 31 31 30 31 33 35 36 39 42 43 41 40 40 39 39 39 42 45 45 45 45 47 49 46 42 38 33 27

ECMWFFLT1_925_spd_009.txt.gz
Wind_Speed
3 3 2 2 1 1 2 3 3 4 5 5 6 7 8 9 9 10 10 10 11 12 12 13 14 14 15 16 17 18 21 23 26 29 28 24 23 25 31 33 26 21 22 21 17 14 8 5 11 16 19 22 22 22 21 19 18 18 17 17 17 18 19
3 3 3 2 1 1 1 2 3 4 4 4 6 6 7 8 9 10 11 12 12 12 13 14 15 15 15 17 17 18 21 24 27 30 31 28 27 25 23 27 25 19 19 22 22 19 14 9 7 8 13 18 20 22 23 21 19 18 18 18 18 17 18
4 3 2 2 2 2 1 2 2 2 3 3 4 5 6 8 9 10 11 13 13 14 14 14 15 16 16 17 17 19 20 23 25 26 29 29 30 28 21 21 23 20 16 16 18 20 17 13 11 8 10 13 14 16 20 21 20 19 19 18 18 18 18
5 4 4 3 3 3 2 2 2 2 3 3 4 5 5 6 8 9 11 13 14 15 16 16 16 16 17 17 17 18 19 21 22 22 26 28 29 29 25 22 24 23 18 14 15 18 17 14 12 10 12 14 13 15 17 18 20 20 21 20 19 18 18
6 5 5 4 4 4 4 3 3 4 4 4 4 5 5 6 7 9 10 12 13 15 16 17 17 16 16 17 17 18 18 20 20 20 23 27 29 29 28 27 27 26 24 21 19 19 17 16 14 10 14 17 13 15 16 18 20 21 21 21 21 19 19
7 6 5 5 5 4 5 5 4 5 5 5 5 6 6 7 8 9 10 11 13 14 16 17 18 18 17 17 18 18 19 20 19 20 24 28 31 30 30 32 32 29 27 25 24 21 16 16 14 9 15 20 15 14 15 18 20 19 21 22 21 20 20
8 7 6 5 5 5 5 5 6 6 6 7 7 8 8 8 9 10 11 12 14 15 16 17 18 19 19 19 19 19 20 21 20 19 23 27 29 31 32 34 35 35 32 28 26 27 24 20 16 12 13 17 18 17 16 17 19 16 17 20 22 21 19
9 8 7 6 6 6 6 6 7 7 8 8 9 9 9 10 11 12 12 13 14 15 16 17 18 19 20 20 20 20 20 21 21 21 21 22 25 29 32 33 34 36 37 34 31 30 31 26 21 19 13 10 13 14 14 14 17 17 17 18 21 22 20
9 8 7 7 6 6 6 7 8 8 9 9 10 10 11 12 13 13 14 14 15 15 16 17 18 19 19 20 21 21 21 21 21 22 22 22 23 25 29 31 33 33 34 38 37 33 33 30 25 24 19 11 9 8 10 11 11 14 18 17 18 22 22
10 9 8 7 7 7 8 8 9 9 10 10 11 11 12 13 14 14 15 15 15 16 16 17 18 19 20 21 21 22 22 22 22 22 23 24 24 25 27 31 35 35 32 36 39 37 35 33 29 27 26 21 14 7 8 10 9 10 16 20 19 20 19
11 9 8 8 8 8 9 9 9 10 10 11 11 12 13 14 15 15 16 16 16 16 17 17 18 19 20 21 22 22 23 23 23 23 23 24 24 25 27 29 32 35 33 32 36 37 36 36 33 30 28 27 21 14 10 8 10 14 15 20 21 20 18
11 10 9 9 9 9 10 10 11 11 12 12 13 13 14 15 16 16 16 17 17 17 17 18 18 18 20 21 21 22 23 24 25 24 23 23 24 24 26 27 28 30 31 31 33 34 35 37 37 33 30 29 26 24 21 14 9 15 19 15 21 23 22
11 10 10 10 10 10 11 11 12 13 13 13 14 14 15 16 17 17 17 18 18 18 18 18 18 18 19 21 22 22 22 24 25 26 25 25 24 24 25 27 28 28 28 29 32 33 33 36 38 37 33 31 30 30 30 22 11 15 27 19 21 25 24
11 11 11 11 11 11 12 12 13 13 14 14 14 15 16 17 17 18 19 19 19 19 19 19 19 19 20 20 21 22 22 23 25 26 26 27 26 26 26 27 28 29 28 28 31 34 34 33 35 38 37 34 33 31 31 26 16 16 26 21 20 24 23
12 11 11 12 12 12 12 13 14 14 14 15 15 16 17 17 18 18 19 20 20 20 20 20 20 20 21 21 21 22 22 23 25 25 26 27 28 28 28 28 27 28 29 29 31 32 33 31 30 33 35 35 36 34 32 29 23 18 20 18 16 18 20
12 11 12 12 12 13 13 13 14 14 15 16 16 17 17 18 18 19 20 21 21 21 21 21 21 22 23 23 23 23 22 23 24 25 26 27 27 28 29 29 28 27 28 30 30 30 31 33 32 31 32 33 36 37 36 33 28 23 20 19 14 16 20
12 12 12 12 12 13 13 14 14 15 16 16 17 17 18 18 19 20 22 22 22 23 23 23 23 24 24 24 24 24 24 24 25 25 27 27 27 28 29 29 29 28 29 30 30 30 29 32 34 34 33 32 32 35 39 37 33 28 23 19 16 18 24
12 12 12 12 12 13 13 14 14 15 16 17 17 18 18 19 21 22 23 23 24 24 24 24 24 25 26 25 26 25 25 25 25 26 27 28 29 29 29 30 30 29 30 31 30 30 30 30 32 32 33 34 34 33 37 39 36 32 27 21 19 20 26
11 11 11 11 12 12 13 14 15 15 16 17 18 19 20 21 22 24 24 25 25 26 26 26 25 26 26 27 27 27 27 27 26 27 27 28 30 30 30 30 30 30 31 32 32 31 30 31 30 30 33 36 35 32 33 36 38 36 30 25 23 21 24
10 10 10 11 12 12 13 14 15 16 17 18 19 20 21 23 24 25 26 27 27 27 27 27 27 27 27 27 28 28 28 29 28 28 28 28 29 30 31 31 31 32 32 32 33 32 32 31 29 30 35 36 35 34 33 34 36 36 32 27 25 23 25
10 10 11 11 12 13 14 15 15 16 17 18 20 21 22 23 24 25 26 27 27 27 28 28 28 27 27 27 28 29 29 30 29 29 29 29 30 30 32 32 32 34 34 34 34 32 32 32 30 31 36 35 35 35 34 32 31 32 32 28 24 23 25
10 11 11 12 13 13 14 15 16 17 18 19 21 22 23 24 25 26 27 27 28 28 28 29 28 28 28 28 27 28 29 29 30 31 30 30 30 31 32 33 33 35 36 36 36 35 35 34 32 32 32 33 35 35 33 30 27 29 31 28 23 23 24
10 11 12 12 12 13 14 15 16 17 18 20 22 23 24 25 26 27 28 28 29 29 29 30 30 31 31 30 29 28 28 28 28 30 31 32 31 31 31 32 33 36 38 40 40 40 40 38 36 35 32 32 35 36 36 32 27 28 30 26 23 24 23
11 11 12 12 13 14 15 15 16 17 19 21 22 23 24 25 26 27 28 29 29 30 31 32 32 33 34 33 32 31 30 30 30 29 30 31 32 31 31 32 33 34 37 41 42 42 43 43 42 40 37 35 36 37 39 35 29 30 31 26 25 27 26
11 11 12 12 13 14 14 15 16 18 20 21 23 23 24 25 26 27 28 29 30 31 33 34 34 35 36 36 35 34 32 32 33 32 31 31 31 30 30 31 32 32 33 37 40 40 41 43 45 45 42 39 38 39 39 35 30 32 33 29 26 27 28
11 12 12 12 13 13 14 15 16 18 20 22 23 24 24 25 26 27 28 30 31 32 33 34 35 35 36 37 37 37 35 33 34 35 34 33 32 31 30 30 30 31 31 33 36 37 37 38 41 45 46 43 41 40 42 40 35 35 37 35 31 30 31
11 12 12 12 13 14 15 15 16 18 21 23 24 25 26 26 26 27 28 29 30 32 32 33 34 35 35 35 35 36 37 36 37 39 38 37 35 34 32 31 31 31 31 30 31 34 35 35 34 38 43 46 45 42 42 44 41 36 36 36 32 31 33
11 12 12 13 14 15 15 15 17 19 21 23 24 25 27 27 28 28 28 29 31 32 33 33 34 35 35 35 35 35 35 34 37 41 42 40 39 37 36 34 34 33 32 30 30 31 33 34 33 31 34 40 44 42 42 44 44 40 39 37 32 28 30
11 12 13 14 15 16 15 16 18 19 21 24 25 26 28 28 29 30 29 30 32 34 35 35 35 36 36 36 38 38 35 34 36 41 42 41 40 39 37 36 36 36 34 33 34 34 33 34 34 32 32 33 35 36 38 42 43 41 42 41 37 31 30
12 12 13 14 16 16 15 17 19 19 21 25 27 27 29 29 29 30 31 32 33 35 36 35 35 36 36 36 37 36 35 36 37 39 39 40 40 39 39 38 37 37 36 36 39 38 34 34 35 35 33 31 31 31 33 36 39 39 39 41 41 37 33
12 13 14 15 16 16 16 18 20 18 19 25 27 28 29 29 29 30 31 32 34 35 36 36 36 37 37 37 38 36 34 35 37 37 37 37 37 38 39 39 40 39 38 37 39 40 38 36 35 36 34 31 30 30 28 30 33 33 33 33 35 36 34
12 13 14 15 16 16 17 19 20 19 21 25 28 29 29 29 30 31 32 33 34 35 36 36 36 38 39 39 40 39 36 34 35 36 35 34 35 36 37 38 40 43 44 41 38 40 41 38 35 36 36 32 30 27 25 29 32 31 30 28 27 29 31
12 13 14 15 16 16 17 19 19 19 22 26 27 28 28 28 31 32 33 34 34 34 36 36 36 37 38 38 39 39 37 34 33 32 33 34 33 34 35 36 37 41 46 47 45 43 44 41 35 33 34 34 31 24 23 28 31 32 31 28 26 27 29
12 12 14 16 16 16 17 18 17 19 23 25 26 27 28 29 31 32 32 32 33 33 34 35 36 36 37 37 37 37 38 37 34 31 32 34 34 34 34 34 35 36 39 44 46 48 50 47 39 35 35 36 32 23 22 27 29 30 31 29 28 28 29
12 12 14 16 17 17 17 16 16 20 23 25 25 27 28 28 29 30 30 30 31 32 33 33 34 34 35 35 36 37 39 40 38 34 33 33 34 35 33 32 32 34 36 40 43 46 50 52 45 40 38 36 29 23 25 28 29 29 30 29 29 30 30
12 12 13 14 16 17 18 17 18 21 23 23 24 26 26 26 27 28 29 29 29 30 31 31 31 32 32 33 34 36 38 40 40 38 37 35 33 33 32 31 31 32 34 38 41 41 44 48 46 41 38 33 27 25 28 30 31 32 32 31 31 30 30
12 12 13 14 15 16 17 17 18 21 21 21 23 24 24 25 26 27 28 28 28 29 29 29 29 29 31 32 33 35 38 39 39 38 38 37 33 32 31 31 32 34 35 36 39 39 40 42 42 38 34 29 26 27 30 33 34 34 32 31 30 28 27

ECMWFFLT1_925_spd_012.txt.gz
Wind_Speed
5 6 5 4 3 3 2 0 1 1 2 2 2 2 3 3 4 4 5 6 7 8 9 10 11 13 13 13 13 15 18 18 19 22 24 23 20 21 25 25 25 29 28 21 15 10 4 3 9 15 19 22 25 25 25 24 23 24 25 25 24 24 25
5 6 6 6 4 3 3 1 0 0 1 1 1 2 3 4 5 5 5 6 7 8 9 10 12 13 14 15 15 16 17 18 20 21 23 22 21 23 22 20 23 28 28 26 23 18 10 6 4 6 12 18 20 23 26 27 26 24 23 24 24 23 23
7 6 6 6 5 4 4 2 2 1 1 1 2 2 3 3 4 6 6 8 9 10 10 11 13 14 15 16 16 17 17 18 20 21 23 23 22 23 22 20 21 21 19 19 21 20 15 11 7 4 7 9 11 17 24 27 28 26 23 23 24 25 22
8 7 6 6 6 5 4 3 3 3 3 3 3 4 4 4 5 5 6 8 10 11 12 13 14 14 15 16 16 18 18 18 20 21 23 24 23 24 24 23 22 21 19 17 19 21 15 10 8 5 6 8 8 13 21 26 30 29 27 25 24 24 24
9 8 7 6 6 5 5 4 4 4 4 4 4 4 5 5 5 6 7 9 10 11 12 13 15 15 16 16 16 17 18 19 19 20 22 24 24 24 25 26 26 25 24 21 22 22 18 15 12 6 6 7 6 7 13 20 27 30 28 27 25 24 26
11 10 8 7 7 6 6 5 5 5 5 5 5 6 6 6 7 8 8 10 10 11 13 14 15 16 17 19 18 17 18 19 19 19 21 22 22 23 25 26 28 28 27 25 24 22 19 17 14 8 7 7 3 6 13 14 16 23 26 26 26 25 26
13 12 10 9 8 8 7 6 6 6 6 7 7 8 9 9 10 10 11 12 13 14 15 16 17 18 19 20 20 19 19 19 19 20 21 22 22 22 23 25 26 27 28 27 26 24 21 17 13 9 7 6 4 7 12 11 11 15 19 21 26 26 26
14 13 12 10 9 9 8 7 7 7 8 8 9 9 9 10 11 12 13 15 16 16 17 17 18 19 18 19 20 21 21 20 20 21 22 22 21 21 22 24 25 26 27 28 28 27 26 23 19 15 9 5 4 5 8 8 8 11 15 19 24 26 26
15 13 13 11 11 11 10 9 9 9 9 9 10 10 11 12 13 14 15 16 16 16 17 17 17 18 18 18 19 20 21 21 21 22 23 23 22 21 21 22 24 26 26 27 28 29 29 27 23 21 17 10 6 5 5 6 6 8 14 19 20 25 28
16 15 14 12 12 11 11 11 10 10 10 11 11 11 12 12 13 14 16 17 17 17 17 17 18 18 18 19 19 19 21 22 22 22 22 23 23 22 22 22 23 25 26 26 27 28 29 30 27 25 24 20 14 8 5 6 6 6 12 16 16 19 23
17 16 14 13 12 12 12 11 11 11 11 11 11 11 12 13 14 15 16 17 17 18 18 18 18 18 18 19 19 20 20 20 22 23 22 23 23 23 23 22 22 24 25 26 26 26 27 29 30 29 28 26 24 18 10 7 8 10 14 15 17 19 14
17 16 15 14 13 13 13 12 11 11 11 11 12 12 13 15 16 16 16 17 17 18 18 18 18 18 19 19 19 20 20 20 21 22 22 23 23 23 23 23 23 23 24 25 26 27 27 27 28 30 30 29 28 26 21 12 7 14 18 14 17 21 12
17 16 16 15 14 14 13 12 12 12 12 13 13 14 15 15 16 16 16 17 17 18 19 19 19 19 19 20 20 20 20 20 21 21 22 23 23 23 23 23 24 23 24 25 26 26 27 27 28 28 29 30 30 28 27 20 10 14 24 19 18 24 18
17 16 15 15 15 14 13 12 12 12 13 13 14 15 16 16 16 17 17 17 18 18 19 19 19 19 19 20 20 21 20 21 22 22 21 22 23 24 24 24 24 24 24 24 26 26 26 27 28 29 30 30 31 30 29 26 16 14 23 24 21 25 21
18 16 16 15 15 14 13 12 13 13 14 14 15 15 16 16 17 17 18 18 19 19 19 20 20 19 20 21 21 22 21 21 22 22 22 22 22 23 25 25 25 25 24 25 26 27 27 27 27 28 30 30 31 32 31 30 22 15 18 21 22 23 20
17 16 16 15 14 14 13 13 13 13 14 15 15 16 16 17 17 18 18 19 19 20 19 19 20 20 21 22 22 23 22 22 23 23 23 23 23 24 25 26 25 25 25 25 26 27 27 28 28 28 29 29 29 31 32 32 28 22 19 20 23 24 20
17 16 16 15 14 13 13 13 13 14 15 15 15 16 16 17 18 18 20 20 20 20 20 20 21 21 21 23 24 24 24 24 24 24 24 24 24 25 26 27 26 25 25 26 26 27 27 28 28 28 29 29 29 30 32 33 33 29 23 20 24 28 22
17 16 15 14 13 13 13 13 13 14 15 15 16 17 17 17 18 19 20 20 20 20 20 21 21 22 22 23 24 25 25 25 25 25 26 25 25 25 26 28 28 26 26 26 26 25 25 27 28 29 29 29 29 30 30 32 33 32 28 24 24 26 23
16 15 15 14 13 13 13 13 14 14 15 15 16 17 17 17 18 19 20 20 21 21 21 22 23 23 23 23 24 26 26 26 26 26 27 27 27 27 27 28 28 28 27 27 27 27 25 25 27 29 31 30 28 29 29 30 30 31 31 29 25 23 22
16 14 14 13 13 13 12 13 13 14 14 15 16 16 17 18 19 20 20 21 22 22 22 23 24 24 24 24 25 26 26 27 27 27 27 28 28 29 29 28 29 30 29 28 28 29 29 28 26 27 30 32 30 29 28 28 28 28 29 28 26 23 22
15 14 13 12 12 12 12 13 13 14 14 14 15 17 17 19 20 20 21 22 23 23 23 24 24 24 24 24 24 25 25 26 27 27 28 29 29 29 29 30 30 30 31 31 29 29 30 31 29 27 27 29 30 31 30 27 26 26 27 25 25 24 23
14 13 12 11 11 12 13 13 13 13 14 15 15 17 18 19 20 20 22 23 23 24 24 24 23 24 24 24 24 25 25 25 26 26 27 28 29 29 29 30 31 31 32 33 34 33 32 32 32 31 29 27 26 27 30 29 26 25 26 24 23 23 23
12 11 11 11 12 12 13 13 13 13 14 15 16 17 17 18 18 20 21 23 24 25 25 24 24 24 26 27 27 28 29 30 30 29 29 28 28 28 29 29 30 31 32 34 36 38 38 37 37 37 37 35 30 26 26 26 25 25 25 23 22 23 22
11 11 11 12 12 12 12 13 13 14 14 15 16 16 16 16 17 19 21 23 24 25 26 26 26 27 28 29 30 31 32 32 32 31 31 30 30 29 30 30 30 31 31 33 34 37 39 40 40 41 42 42 40 36 30 26 24 25 24 23 22 23 23
11 11 11 12 12 12 13 13 13 14 15 15 15 16 16 16 17 19 21 23 24 26 27 26 27 28 29 30 31 32 33 33 32 32 31 31 31 31 31 31 31 31 32 32 31 32 35 37 38 40 43 45 46 45 41 35 29 26 24 23 23 26 26
10 10 10 11 11 12 12 12 13 14 15 15 15 15 15 16 18 20 22 24 25 26 27 27 28 29 30 32 31 32 33 33 32 32 32 32 32 33 33 33 32 33 33 33 33 32 32 34 35 35 39 44 48 48 48 45 41 34 29 26 26 28 29
8 9 10 11 12 12 12 13 14 14 15 15 15 14 15 16 19 21 23 25 26 27 27 28 29 30 31 33 34 35 36 35 33 32 33 33 34 34 35 34 34 34 33 33 34 33 31 31 32 31 32 37 43 48 48 48 48 45 38 32 30 30 31
7 8 10 11 11 12 12 14 15 14 15 16 13 12 15 17 19 21 24 26 27 28 28 28 30 31 33 34 35 36 38 37 36 35 34 34 34 35 36 36 36 36 35 34 35 35 33 32 32 31 31 30 34 40 42 43 44 45 43 39 37 34 32
7 9 10 11 11 11 12 14 14 14 15 15 13 14 16 18 19 22 25 27 28 29 29 29 30 31 32 33 34 35 36 35 36 36 35 34 34 35 36 38 39 38 38 37 36 36 37 37 37 37 35 33 31 32 35 38 38 40 42 43 42 40 36
8 10 10 10 11 11 12 13 14 14 15 14 13 15 17 19 20 23 26 27 28 29 29 28 29 31 32 33 34 35 35 34 35 35 36 35 35 35 36 37 38 38 38 38 37 37 38 39 40 40 37 34 33 31 32 33 34 36 38 40 43 45 42
8 9 9 9 10 10 12 13 15 16 15 13 13 15 18 20 22 24 26 27 28 29 30 30 30 32 33 34 35 36 36 36 35 35 35 35 35 36 36 36 37 38 38 37 36 36 37 38 40 41 37 33 32 32 31 29 29 30 32 34 40 45 44
6 7 8 8 9 10 12 14 16 16 14 12 13 16 19 21 23 25 27 28 29 30 31 31 30 30 32 32 33 34 36 36 36 35 35 35 35 36 36 36 37 38 40 39 38 37 37 37 39 40 36 32 30 31 31 29 27 28 28 31 37 41 42
4 5 7 8 9 11 13 14 14 13 12 13 15 17 19 22 24 26 27 28 28 29 29 29 29 29 31 33 35 35 35 35 35 35 35 34 34 34 35 35 36 37 39 39 40 42 42 42 42 41 37 34 31 29 28 27 26 29 30 30 35 38 38
4 6 7 9 10 12 13 14 13 12 13 14 15 18 22 23 24 26 27 27 28 28 28 29 30 31 32 34 36 37 37 36 35 36 35 34 34 34 33 34 35 36 37 37 39 42 44 46 48 47 45 45 41 34 28 26 25 27 30 30 32 34 34
5 6 7 8 10 11 12 13 12 12 14 16 17 20 22 23 24 25 26 27 27 28 29 30 31 32 33 35 36 37 39 39 37 36 34 33 33 34 33 34 35 35 36 37 38 40 42 45 48 50 52 54 50 45 41 35 29 25 27 28 28 30 30
5 6 7 8 10 11 11 10 11 13 15 17 19 21 22 23 24 25 27 27 27 28 30 30 31 32 33 35 37 38 39 40 39 37 35 33 33 33 34 35 35 36 37 39 39 40 41 43 47 49 51 53 51 50 48 40 32 26 25 26 26 27 27
6 7 8 10 11 11 9 8 10 12 13 15 17 19 21 23 23 24 26 27 27 28 29 29 30 32 33 36 38 38 38 38 38 38 37 36 36 35 36 36 36 37 38 40 41 42 43 44 47 49 49 48 48 48 45 37 31 27 25 25 25 25 26

ECMWFFLT1_925_spd_015.txt.gz
Wind_Speed
15 13 9 8 7 5 4 4 4 2 1 2 2 2 3 3 2 3 4 5 5 5 5 6 7 8 9 10 11 10 10 11 13 16 18 17 15 16 19 21 24 23 17 14 15 9 2 3 7 12 18 23 26 28 29 30 31 30 31 30 27 26 27
14 12 9 8 8 7 5 5 4 4 3 2 2 2 2 3 4 4 5 5 6 7 8 9 9 10 11 12 13 13 12 12 12 14 16 17 17 18 18 18 20 22 20 21 24 18 9 6 5 5 11 16 20 27 31 31 31 31 31 31 29 29 30
14 11 10 10 10 8 7 6 5 5 3 2 2 1 2 3 3 4 4 5 6 7 9 10 12 13 14 14 14 15 16 16 16 16 15 16 17 18 19 18 18 17 14 13 18 20 14 10 8 7 10 12 11 18 26 30 33 32 30 30 29 30 32
15 13 13 15 13 11 9 8 5 5 5 4 4 3 3 3 4 3 3 4 6 7 9 9 10 12 14 15 15 16 17 17 18 18 19 18 18 19 20 20 21 20 17 14 17 20 15 11 8 7 12 16 15 17 19 22 28 31 31 30 30 31 33
17 16 17 19 16 14 12 11 8 7 7 7 7 5 4 4 5 3 3 5 8 10 10 10 10 11 12 14 17 18 19 18 17 18 20 20 20 20 20 21 23 24 24 23 22 21 17 15 12 6 11 16 15 16 18 16 18 24 27 27 28 31 33
19 19 19 18 16 16 15 13 12 10 9 8 8 6 5 5 6 6 7 9 11 11 11 12 13 13 14 15 18 20 22 22 21 19 20 20 21 21 20 20 22 23 25 26 25 23 20 20 16 10 14 16 11 13 17 15 14 17 20 21 22 25 30
20 21 20 18 17 17 16 14 13 13 11 10 9 8 8 8 9 10 12 12 12 13 14 15 16 17 18 18 19 20 22 23 23 23 23 23 22 21 21 21 21 22 23 25 26 25 24 22 19 14 13 13 12 13 13 14 14 13 15 18 20 21 25
21 20 19 18 17 17 15 14 13 13 13 11 10 10 10 10 10 11 12 13 14 15 16 16 16 17 17 18 19 20 20 21 21 22 24 25 24 23 22 23 23 23 23 24 24 26 26 25 24 23 17 9 7 9 8 9 12 13 15 16 17 19 22
22 20 19 18 17 16 15 15 14 13 12 12 11 11 10 11 11 12 13 14 15 16 16 16 16 16 16 17 19 20 20 20 21 22 22 24 25 25 24 24 25 25 24 24 24 25 26 27 26 26 23 15 9 6 5 5 7 10 15 15 15 17 18
23 22 20 19 17 15 15 16 15 13 13 12 11 11 11 11 12 12 13 14 14 15 16 16 16 16 16 17 18 19 20 20 21 22 22 23 24 24 24 24 25 26 26 25 25 25 26 28 28 27 26 23 16 8 5 5 5 7 11 14 15 17 18
23 22 20 19 18 17 17 17 16 15 13 12 11 10 10 10 11 12 13 14 14 15 16 16 17 16 16 17 18 19 19 19 19 21 22 23 24 24 24 24 24 25 26 26 27 26 26 27 28 28 28 28 24 16 10 6 6 10 12 14 16 18 18
23 22 20 19 19 19 18 18 16 15 12 10 10 10 10 11 12 13 14 14 14 14 15 16 16 17 17 18 19 20 20 19 20 22 23 24 24 24 24 25 25 25 26 26 27 27 27 27 27 28 28 28 27 25 20 12 6 12 17 16 18 19 18
24 23 22 20 20 19 18 18 16 13 11 10 11 11 12 12 13 13 14 14 15 15 16 16 16 17 18 19 20 20 21 20 20 22 23 23 23 24 24 24 25 25 25 26 27 28 28 28 28 28 28 28 28 27 26 19 9 12 21 22 20 21 20
25 24 23 22 21 19 18 16 14 12 11 11 12 12 12 13 13 14 14 15 16 16 16 16 17 17 18 19 20 20 21 21 22 22 23 23 23 24 24 24 24 24 24 24 25 27 29 29 28 29 29 28 28 28 27 22 14 13 21 23 22 21 19
25 24 23 23 21 20 17 15 13 12 12 12 12 12 13 13 14 14 15 16 16 16 17 17 18 18 18 18 20 21 22 22 23 23 24 24 23 24 25 26 27 27 26 26 26 25 26 28 29 29 29 28 29 29 27 25 20 16 18 21 22 22 19
24 24 23 22 20 19 17 15 13 12 12 12 12 13 13 14 14 14 15 16 16 17 18 19 19 18 18 18 19 21 22 23 24 25 25 25 25 24 25 26 27 28 28 28 28 26 25 25 26 28 29 29 29 30 29 28 24 19 19 20 21 23 22
24 23 22 21 19 18 16 14 13 12 12 12 12 13 14 14 14 15 16 17 18 19 20 20 19 18 18 18 20 22 23 23 24 24 25 25 25 25 25 25 26 27 27 28 28 28 27 25 23 24 27 28 29 30 30 30 28 24 22 21 20 22 25
24 24 22 20 18 16 15 13 12 12 12 13 13 14 14 15 15 16 16 17 18 18 19 19 19 19 19 19 21 23 24 25 25 25 25 25 25 25 25 25 26 26 27 27 28 29 29 28 26 24 23 25 27 28 29 30 30 28 26 24 22 22 25
24 23 22 20 18 16 14 12 12 12 13 13 14 14 15 15 15 15 15 16 18 19 20 20 21 22 22 22 23 24 24 25 26 26 27 27 27 26 25 25 26 27 28 28 28 28 29 28 28 26 24 23 23 25 27 28 29 28 28 28 26 23 23
24 22 21 19 17 15 14 13 13 13 13 14 14 14 14 14 14 14 16 18 19 18 18 18 20 21 23 24 24 25 25 25 25 25 25 26 25 25 25 24 24 25 26 28 29 30 30 30 29 28 26 23 23 22 23 25 27 28 27 27 27 24 23
23 21 19 18 16 15 14 13 13 13 13 13 14 13 13 14 15 16 17 16 14 15 16 17 18 19 20 22 23 23 24 24 24 24 24 25 26 27 27 27 26 24 24 24 26 27 29 30 31 31 31 28 26 25 23 22 22 23 25 25 26 25 23
22 21 18 17 15 15 14 13 13 13 14 14 13 13 14 14 15 14 13 13 14 16 18 20 21 21 22 23 24 26 26 25 25 25 25 28 29 31 31 31 31 30 28 26 26 26 26 27 29 32 35 35 32 29 26 24 21 19 20 22 24 24 22
22 20 18 16 15 14 13 13 14 14 14 13 12 13 13 12 12 12 12 14 16 18 20 22 23 25 26 26 27 28 28 28 27 26 26 27 28 30 31 32 33 34 34 33 31 30 29 28 27 28 31 33 34 33 30 28 26 22 20 19 20 20 19
21 19 18 16 14 13 13 14 14 13 12 11 10 10 10 10 11 12 14 16 18 20 22 23 25 27 28 28 29 31 31 31 29 28 28 27 28 29 30 31 33 34 35 35 34 33 32 31 30 29 29 29 31 33 32 31 29 26 23 21 20 20 19
20 18 16 14 13 13 13 13 13 12 10 8 9 10 10 11 13 14 15 17 19 21 22 24 26 27 27 27 28 29 31 32 32 31 30 30 30 30 30 31 31 32 33 34 34 34 34 33 33 32 32 31 31 32 33 33 32 31 28 25 22 23 22
18 16 14 13 12 12 12 12 11 10 8 9 11 11 12 13 13 14 15 18 20 21 23 25 27 27 27 27 27 28 30 32 33 33 32 31 31 31 31 31 32 32 32 33 33 33 33 33 33 33 33 34 34 33 33 34 34 34 33 31 28 27 27
15 13 11 11 10 9 9 9 8 8 9 11 12 11 11 11 12 14 16 18 20 22 24 26 26 26 26 27 27 28 29 31 32 32 32 32 31 31 31 31 32 33 33 32 33 32 32 32 32 32 32 32 33 33 32 32 32 31 31 32 33 35 34
13 11 9 8 7 7 7 6 6 7 9 9 9 8 9 11 13 15 18 19 22 24 25 25 24 24 25 25 26 27 29 30 31 32 32 32 32 33 33 32 33 33 33 33 33 33 33 33 33 33 33 33 34 35 36 37 35 32 30 30 33 37 39
10 8 7 7 6 5 3 3 4 6 6 6 6 8 10 12 15 17 19 20 22 23 24 24 23 24 26 27 29 30 31 31 31 31 32 32 33 34 34 34 34 34 33 33 33 32 33 33 34 35 36 36 36 37 39 40 39 37 36 34 34 36 38
7 6 4 3 1 1 2 3 5 7 7 6 7 9 12 14 16 18 20 21 22 23 24 25 26 27 28 29 29 30 30 29 29 29 31 31 32 34 34 34 34 35 35 35 34 32 31 31 34 36 35 36 36 36 39 40 40 40 40 38 37 35 36
6 4 3 4 4 4 5 6 9 10 9 7 8 11 13 16 18 19 21 22 23 24 26 27 27 28 27 27 27 27 28 27 27 28 30 31 32 33 34 35 35 36 37 37 35 34 32 31 33 34 33 34 34 35 37 35 35 39 39 38 39 37 34
5 5 5 5 4 4 7 9 9 8 6 7 9 12 15 18 21 23 24 25 26 27 28 28 28 28 28 27 27 27 28 28 28 30 31 32 33 33 33 34 35 36 37 38 37 36 35 34 33 33 31 30 32 34 35 31 30 33 34 32 34 34 32
7 5 4 3 4 6 7 7 5 4 5 7 11 14 17 21 24 25 26 27 27 28 28 29 29 28 28 28 29 30 31 30 30 31 31 32 32 32 32 32 33 34 35 36 37 37 37 37 37 35 33 32 32 32 29 29 29 29 29 29 30 29 29
5 2 1 2 3 3 3 3 3 3 5 10 15 18 19 21 23 24 26 26 27 28 29 29 29 29 29 30 31 32 32 31 30 31 32 32 33 33 32 32 33 34 34 35 36 36 37 37 38 38 38 38 38 35 31 32 32 30 32 34 34 34 32
3 2 2 2 1 1 1 3 3 4 7 12 17 19 20 21 23 24 26 27 27 29 29 29 29 29 30 31 32 32 32 32 32 32 33 33 33 33 34 34 36 36 35 35 36 37 37 38 38 40 42 42 41 40 40 39 36 33 34 36 36 36 35
8 6 5 3 3 3 3 4 3 5 9 13 16 18 20 22 22 24 26 28 28 29 29 28 29 29 30 31 32 33 33 34 34 34 35 34 34 34 35 36 36 36 35 35 36 36 37 38 39 40 42 43 43 43 42 41 38 36 35 35 34 35 34
8 5 3 2 4 3 4 4 4 7 10 13 15 17 19 20 21 23 26 28 29 29 28 28 28 29 30 31 32 34 34 35 36 36 36 37 37 36 37 37 37 37 37 36 36 37 37 38 40 41 41 41 42 42 41 39 37 35 33 33 32 32 33

ECMWFFLT1_925_spd_021.txt.gz
Wind_Speed
13 11 10 9 7 6 5 4 4 5 4 5 6 5 4 2 2 2 2 3 4 5 5 5 7 7 7 7 8 8 9 10 11 11 10 10 10 10 10 9 8 8 7 7 7 5 3 4 9 15 17 16 14 13 13 15 17 19 22 24 25 27 27
12 11 11 10 9 8 7 6 6 5 4 4 5 4 4 3 3 4 5 6 6 7 6 7 7 7 8 9 9 9 9 10 10 10 9 9 10 10 9 9 9 9 8 6 6 7 5 4 4 6 12 18 19 19 18 16 15 15 17 20 22 24 27
15 13 13 12 12 10 9 8 6 6 5 4 4 4 3 3 4 4 4 5 6 7 7 7 8 8 9 10 10 10 10 10 10 10 9 9 9 9 8 9 9 9 8 5 5 5 5 6 5 4 8 11 12 19 23 21 19 19 19 20 20 22 24
17 16 16 15 14 13 11 9 7 6 6 5 4 4 3 2 2 2 3 4 5 7 8 9 9 9 10 10 10 10 9 10 10 10 9 9 9 8 8 8 8 8 7 5 7 9 8 6 6 5 7 10 11 17 24 25 24 23 23 22 22 22 24
19 19 18 17 16 15 13 10 8 8 7 6 5 4 3 2 2 1 1 2 4 7 8 9 10 11 11 11 10 10 10 10 9 10 10 10 10 10 9 9 9 8 8 8 9 11 11 11 10 6 7 11 10 13 21 24 24 24 22 21 22 22 23
20 20 19 19 17 15 13 11 10 9 8 7 6 4 3 2 2 2 2 2 4 7 9 10 11 11 11 11 11 11 11 11 11 11 11 11 11 10 10 10 10 10 10 10 10 10 11 13 13 9 10 12 9 11 17 18 19 22 23 23 21 20 20
21 21 20 20 19 16 14 13 11 10 9 8 6 5 4 4 4 4 3 3 5 7 9 10 10 10 10 11 12 12 12 12 12 11 11 11 11 11 10 10 11 11 12 12 11 11 11 12 13 11 11 11 11 12 13 14 16 17 20 23 21 19 20
23 22 21 21 20 18 16 14 13 12 11 9 8 7 7 8 7 5 4 5 6 8 9 9 9 8 9 10 11 12 12 12 12 12 12 12 12 12 12 12 12 12 12 12 12 12 11 12 14 14 13 10 8 9 8 11 14 15 18 22 22 21 21
25 23 23 23 22 20 18 16 15 14 12 10 9 9 9 8 7 6 6 7 8 9 9 9 8 8 9 10 11 12 13 13 13 12 12 12 12 12 12 13 13 13 13 12 11 11 11 11 12 14 14 11 9 7 5 7 8 11 16 18 18 20 20
27 25 25 25 23 22 21 18 17 15 13 11 11 11 10 8 8 7 8 9 9 9 9 9 8 8 9 11 12 12 13 13 13 13 13 13 13 13 13 13 14 14 14 13 12 11 11 12 12 12 13 12 12 9 6 7 5 7 14 16 15 18 19
28 27 27 26 24 24 23 21 19 18 15 13 13 12 11 10 10 9 10 9 9 10 10 10 9 9 11 12 12 13 13 13 13 13 13 14 14 14 14 14 14 15 14 14 14 14 13 13 13 14 14 14 14 12 10 9 7 10 16 18 17 18 19
29 29 29 28 26 25 25 23 21 20 17 16 15 15 14 13 12 10 9 8 9 9 9 9 10 11 12 13 14 15 15 14 14 13 13 14 15 16 16 15 14 14 14 14 14 15 15 15 14 14 15 15 15 14 14 13 10 11 16 17 18 21 21
31 30 30 29 28 27 26 25 23 21 20 19 18 17 16 14 12 10 8 8 8 8 8 8 10 11 12 13 15 16 16 15 15 15 15 16 16 17 18 17 16 15 15 15 15 14 15 16 15 15 15 15 15 14 15 14 10 12 17 19 21 25 25
32 31 31 30 29 28 27 26 24 22 21 21 19 18 16 13 11 9 7 7 7 7 7 8 10 11 12 14 15 15 15 15 16 17 18 19 19 19 19 18 18 17 16 16 16 15 15 15 15 16 17 16 15 14 14 14 10 12 19 21 20 24 26
34 33 32 32 31 29 28 26 24 23 22 21 20 18 15 12 10 8 7 7 6 6 7 9 9 10 11 13 13 13 13 14 16 17 18 19 20 20 20 21 20 19 18 18 17 16 16 14 14 16 17 17 17 17 15 15 13 11 16 21 19 20 24
36 35 35 34 33 31 29 26 24 23 23 22 20 18 14 11 9 8 7 6 6 7 8 8 8 9 10 12 13 12 12 13 14 15 16 17 18 18 19 21 21 20 20 19 17 16 15 14 14 14 15 15 16 18 17 16 16 13 14 19 19 17 19
37 37 37 36 35 32 30 27 25 23 23 22 20 16 13 11 10 8 7 7 7 8 8 8 8 10 11 13 14 13 13 13 14 15 16 18 19 19 20 20 20 19 18 18 17 16 15 15 15 14 14 14 14 15 15 15 15 15 15 17 19 17 17
38 39 39 37 35 33 29 26 24 24 23 22 19 15 13 12 10 9 8 8 8 9 9 9 10 11 12 13 13 13 13 14 15 17 19 20 22 23 23 23 22 19 18 18 19 19 19 18 18 17 16 17 16 15 16 15 15 15 15 16 19 20 18
39 40 39 37 34 31 28 25 24 24 23 21 17 15 13 11 10 9 9 9 9 10 10 10 11 12 13 13 13 14 15 16 18 19 21 23 24 25 25 25 24 23 22 22 22 22 22 21 20 20 20 20 20 20 20 19 17 16 16 16 19 21 19
39 39 37 35 32 29 27 25 24 23 22 19 16 15 13 11 10 10 10 10 10 10 10 10 11 12 13 13 14 15 17 18 20 21 23 24 24 24 24 23 23 24 24 24 24 23 23 22 21 22 21 21 22 22 21 21 19 18 16 16 18 20 20
38 37 35 32 30 28 26 25 24 22 20 18 16 14 12 11 11 10 10 10 10 9 10 10 11 12 12 14 15 17 19 20 22 23 24 24 23 23 22 22 22 23 23 24 24 23 23 23 23 24 24 23 23 23 22 21 20 19 18 16 17 19 20
37 34 33 31 29 28 26 24 23 21 19 17 15 13 12 12 11 11 10 10 9 9 9 9 10 11 12 14 17 18 20 22 23 24 24 24 24 23 23 23 23 23 23 23 23 23 23 24 24 26 26 24 23 23 23 22 21 20 18 17 17 18 18
33 33 32 31 29 28 26 23 22 20 19 17 15 14 13 12 11 11 10 9 8 7 7 8 8 11 13 15 18 19 21 22 23 24 25 25 25 24 24 24 25 24 24 24 24 24 24 25 25 26 26 26 25 24 23 23 22 20 19 17 17 17 16
27 30 31 31 29 27 25 23 22 20 18 16 15 14 13 12 11 10 8 7 6 5 6 8 10 13 16 18 19 21 22 23 24 24 24 25 25 25 25 26 26 26 26 26 26 26 26 26 26 26 26 26 26 25 25 24 23 22 20 19 19 18 17
25 27 29 30 29 27 26 24 22 20 18 17 15 14 13 12 10 9 7 6 5 5 7 10 13 16 18 19 20 21 22 24 24 25 25 26 27 27 27 27 28 28 28 28 28 28 27 27 27 27 27 27 27 28 27 27 27 25 23 21 21 21 21
27 28 29 30 29 28 27 25 22 19 18 16 15 14 13 11 10 8 6 4 4 6 9 12 14 17 19 20 20 20 22 24 25 26 27 27 28 28 28 28 28 28 28 27 27 27 27 27 27 27 28 28 29 29 29 29 30 29 28 26 24 25 25
29 30 29 29 29 28 26 23 21 19 17 16 15 14 13 11 9 6 4 3 5 8 10 12 16 19 22 23 23 22 23 25 26 28 28 28 28 28 28 28 29 29 28 26 26 26 26 27 27 28 29 29 29 30 29 30 30 30 30 30 30 30 29
29 25 22 22 24 24 22 20 18 16 15 15 14 13 11 9 7 3 2 4 7 9 11 14 18 22 25 25 25 24 25 26 27 28 29 29 29 29 28 28 28 29 28 27 25 25 25 26 28 29 30 30 30 31 31 30 29 29 30 31 32 33 32
28 25 23 23 23 22 20 18 16 16 15 14 12 10 8 6 3 1 3 6 9 10 12 15 19 24 27 27 26 26 27 27 28 28 29 29 29 30 29 29 29 28 28 28 27 26 26 27 28 30 31 32 31 32 33 32 30 29 30 31 33 33 33
29 29 30 28 24 21 20 19 17 15 14 12 10 8 5 3 1 3 5 7 9 11 13 16 20 25 28 28 26 26 27 28 28 28 29 29 29 30 30 29 28 28 29 28 28 28 27 27 29 30 31 32 31 32 33 32 29 30 30 31 33 33 34
32 32 30 27 24 21 20 19 16 13 11 10 8 6 4 2 4 6 8 8 9 11 14 17 22 26 29 29 27 26 27 28 28 28 29 29 29 29 29 28 27 28 29 29 28 28 27 27 29 30 30 30 31 32 32 30 29 30 29 29 30 31 32
31 29 27 26 25 22 19 17 14 11 9 8 7 5 3 3 5 7 9 10 10 12 15 19 24 28 30 30 27 27 28 28 28 28 29 28 28 27 27 27 28 28 30 31 31 31 30 30 31 32 30 30 31 31 31 30 30 30 29 29 30 30 31
30 28 27 26 23 19 17 15 13 10 8 6 5 4 1 3 6 8 10 11 11 13 16 21 26 29 31 30 28 27 27 28 28 28 28 28 28 29 29 29 30 30 32 33 33 33 33 33 34 34 33 31 32 32 31 30 30 29 29 30 30 30 31
29 28 27 24 21 18 16 14 11 9 7 5 3 2 1 4 7 9 11 11 13 15 17 22 27 30 31 30 28 27 27 28 28 29 30 30 31 33 33 33 33 33 33 34 34 34 34 34 34 35 35 34 34 33 32 31 30 29 29 30 30 30 30
27 26 24 22 20 18 14 12 9 7 5 3 2 2 4 6 8 10 12 13 15 17 19 22 27 31 32 31 29 27 27 28 28 29 31 33 33 33 34 35 35 35 35 35 35 34 35 35 35 36 37 36 35 34 34 34 33 31 31 30 29 29 29
26 24 23 21 19 16 13 10 8 6 4 3 3 4 5 7 10 12 14 15 17 19 20 23 28 31 33 32 31 29 27 28 28 29 32 34 34 35 36 37 37 36 36 36 36 36 37 36 36 38 38 38 37 37 37 36 34 32 31 30 28 29 29
27 25 23 21 18 15 12 9 7 5 5 5 5 5 6 8 11 13 15 17 19 20 21 24 29 32 34 33 31 29 28 29 29 30 32 34 35 36 37 38 38 38 39 39 39 39 39 39 39 40 40 40 39 37 36 35 32 30 29 28 28 29 29

ECMWFFLT1_925_spd_024.txt.gz
Wind_Speed
12 10 10 9 8 7 6 6 5 5 6 6 6 6 6 6 6 7 7 8 9 10 10 11 12 12 11 11 10 9 8 8 8 9 9 8 6 6 5 5 5 5 3 2 2 3 2 2 5 9 10 11 13 12 9 9 9 11 13 13 14 14 15
12 10 11 10 9 7 7 7 7 5 5 6 6 6 6 7 8 9 9 10 11 11 11 11 12 11 12 11 11 11 9 9 9 8 8 8 7 6 5 5 5 4 4 3 3 4 2 2 3 3 8 14 15 13 12 12 13 13 14 15 15 15 14
13 12 12 11 10 8 8 8 8 7 6 6 6 6 6 7 7 8 8 9 10 10 10 11 11 12 12 12 12 11 11 10 10 9 8 8 6 5 5 5 5 5 4 3 4 6 4 3 3 3 6 9 9 13 17 15 16 16 15 14 14 14 14
15 15 14 13 12 11 10 10 10 9 8 7 6 6 6 6 6 5 6 7 8 8 9 10 11 12 12 12 12 12 12 12 12 11 10 9 7 6 5 5 5 5 4 2 3 5 3 2 4 4 5 7 9 12 14 14 16 16 14 13 13 14 15
17 18 17 16 15 13 12 11 11 11 10 9 7 6 5 5 4 3 3 4 5 7 8 10 11 11 11 11 12 13 13 13 12 12 12 11 10 9 7 7 6 5 4 3 3 3 3 3 4 4 5 8 8 9 13 15 16 15 14 14 14 14 14
19 19 19 17 16 15 13 13 12 12 11 10 9 7 6 5 4 2 1 1 3 5 7 8 8 9 10 11 12 12 12 12 11 11 11 11 11 10 9 9 8 8 6 5 4 4 4 4 4 4 5 6 6 9 14 15 14 14 16 15 13 13 13
21 21 20 19 17 16 15 14 13 12 11 10 10 9 7 5 4 3 2 1 1 3 5 6 6 7 8 10 12 12 12 12 11 11 10 10 10 10 10 9 9 9 9 7 6 5 5 5 5 5 5 6 7 9 10 12 12 12 14 14 14 14 14
23 22 21 20 19 17 16 15 14 13 11 9 9 10 9 7 6 5 4 2 0 2 4 4 4 5 6 8 10 10 11 11 10 10 10 10 11 10 10 10 10 10 9 9 8 7 6 6 6 6 6 5 6 6 6 8 11 12 14 16 17 16 13
25 24 23 22 21 19 18 17 15 14 12 10 10 10 10 9 8 7 6 4 1 1 2 3 3 3 5 7 8 9 9 9 9 10 10 10 11 12 12 12 11 11 10 9 9 9 8 7 8 8 7 6 6 5 4 5 7 9 12 13 13 13 11
27 26 25 24 22 21 20 19 17 15 14 13 12 12 11 10 10 9 7 5 3 2 2 1 1 2 4 5 6 8 8 8 8 8 9 10 11 12 12 12 12 11 10 10 9 9 9 10 10 10 9 8 7 5 4 5 5 5 9 11 11 12 13
30 29 27 25 24 22 22 21 20 19 17 15 14 14 13 12 12 11 9 7 5 3 2 1 1 1 3 4 5 6 7 7 7 7 8 9 10 11 12 12 12 12 11 11 11 10 10 10 11 11 12 11 10 8 6 5 6 7 9 11 11 13 16
31 30 29 27 26 25 24 23 22 21 19 18 17 16 15 15 14 12 10 8 6 4 2 2 2 2 2 3 4 5 5 5 5 6 7 8 9 10 11 11 11 12 12 12 12 12 12 12 12 12 12 12 12 12 10 8 7 8 9 10 12 15 17
32 32 30 29 28 28 27 25 24 23 21 20 19 18 17 16 15 13 11 9 7 5 3 3 2 1 1 2 3 4 4 4 4 4 5 7 9 10 11 12 12 12 12 12 12 13 13 13 13 13 12 12 12 13 14 11 9 11 15 15 15 16 17
34 33 32 31 31 30 29 28 27 25 23 22 21 20 19 17 16 14 12 10 8 6 4 3 2 1 1 2 4 5 5 6 6 6 7 8 9 11 12 13 14 14 15 15 14 13 13 13 13 13 13 13 13 12 13 13 11 13 18 18 15 17 16
36 35 34 33 33 32 31 30 29 27 25 24 22 21 20 18 16 15 13 11 8 6 5 3 2 2 3 4 6 7 7 7 7 7 8 9 10 11 13 15 16 17 18 18 17 15 13 11 11 12 12 13 14 12 11 12 12 12 17 20 18 18 17
36 35 36 36 36 35 34 32 31 29 26 24 23 21 20 19 17 15 13 11 8 6 5 4 3 4 5 6 7 8 8 8 7 7 8 9 11 13 15 17 19 20 21 21 20 17 14 12 12 13 14 13 14 14 12 11 11 10 14 19 19 17 16
36 36 36 38 38 37 35 34 32 30 27 24 23 22 20 18 17 15 13 11 9 7 6 5 5 6 6 7 8 8 8 7 7 8 9 11 12 14 16 18 20 21 21 21 21 20 18 17 16 16 17 16 16 16 16 14 14 13 13 17 20 19 18
36 37 38 39 39 39 37 35 32 29 26 24 23 22 20 19 17 15 13 11 9 8 6 6 6 7 7 8 9 8 7 8 9 10 11 13 14 15 17 18 20 20 19 19 20 20 20 20 20 19 19 19 18 18 19 18 18 18 16 18 22 23 21
36 38 39 39 39 39 37 35 32 29 27 25 23 22 21 19 17 15 13 11 9 8 7 7 7 7 7 7 7 7 8 9 11 12 14 15 16 17 18 19 20 19 18 18 18 19 19 20 20 21 20 20 19 19 20 20 20 20 19 20 23 25 24
33 34 35 36 37 38 38 37 33 30 28 25 24 23 22 19 17 15 13 11 10 9 8 8 7 6 5 6 6 8 9 11 13 15 16 17 18 19 20 20 20 20 19 19 19 19 19 19 19 20 20 20 20 20 20 21 21 21 20 21 22 24 24
28 29 30 31 32 34 35 34 33 31 29 26 25 24 22 19 17 15 13 11 10 9 9 8 6 5 4 5 7 9 11 14 16 18 19 20 20 21 21 21 21 21 20 20 20 20 20 20 20 20 20 20 20 21 21 21 21 21 21 21 22 23 24
25 26 27 29 30 30 29 28 29 28 27 25 24 23 21 19 17 15 13 11 11 10 9 7 5 4 4 6 8 11 13 15 18 20 21 22 23 23 23 22 22 22 21 21 22 22 22 21 21 22 22 21 21 22 22 22 21 20 20 20 20 21 22
24 25 27 29 31 30 28 28 27 26 25 25 24 22 19 17 16 14 14 13 12 11 9 7 5 4 5 7 10 12 15 17 18 20 22 23 24 24 24 23 23 23 23 23 23 24 24 24 24 24 24 24 24 23 23 23 21 20 19 18 18 18 19
23 25 26 28 29 28 27 28 29 29 28 26 24 21 18 17 16 15 14 14 13 11 9 6 4 4 6 8 11 14 16 18 19 20 21 22 24 25 24 24 25 24 24 24 25 25 25 25 25 25 25 25 25 25 25 24 23 21 19 17 18 18 18
24 25 25 26 27 27 26 28 30 31 30 27 25 22 19 17 17 16 16 15 13 10 7 5 4 5 7 10 13 16 18 19 21 21 22 23 23 24 25 26 25 25 25 25 25 25 24 25 25 25 25 25 25 25 25 26 26 24 22 20 19 19 20
24 25 24 24 25 25 26 29 31 31 30 28 26 23 20 18 18 17 16 14 12 8 5 4 5 6 9 11 14 18 21 22 22 23 23 23 24 24 25 26 26 26 25 25 24 24 25 26 26 26 26 26 27 27 26 27 28 28 28 27 25 24 24
24 24 23 23 23 25 28 31 32 30 29 27 25 23 21 19 18 17 15 12 9 6 4 4 5 7 10 13 17 20 23 24 24 24 24 24 25 25 26 26 27 27 26 26 25 25 26 27 27 28 28 28 28 29 28 28 28 28 29 31 31 32 31
23 23 22 22 24 27 29 31 31 30 28 26 23 21 21 20 18 15 12 9 6 4 3 4 6 9 12 16 20 23 26 26 26 25 25 25 25 26 25 25 27 27 27 27 26 25 26 26 27 28 29 29 30 30 30 30 29 28 29 30 33 35 35
22 22 22 23 26 28 31 32 31 30 27 23 21 20 20 20 17 13 9 6 3 2 3 5 7 10 14 18 22 26 28 28 27 26 27 27 26 26 25 25 25 26 26 26 26 26 25 25 26 28 29 31 31 31 31 30 29 29 30 30 32 34 34
23 23 24 25 28 31 33 33 31 29 27 24 23 22 20 18 14 9 6 3 2 2 4 5 8 11 14 19 24 27 28 28 27 28 28 27 27 26 25 24 24 24 25 25 25 25 24 24 26 28 29 31 31 31 31 29 28 29 29 30 31 32 33
24 24 25 26 29 32 34 34 32 29 27 26 24 22 18 14 10 6 3 2 1 3 4 6 9 12 15 20 25 27 28 27 27 28 29 28 27 25 24 24 22 22 24 24 24 25 24 25 27 29 29 30 31 31 30 28 28 29 27 28 29 30 31
25 25 25 25 25 24 25 28 30 28 27 26 23 19 15 11 8 5 3 1 2 3 6 8 10 12 15 21 25 27 27 27 27 28 28 27 26 24 23 24 23 23 24 26 27 28 28 28 30 30 30 30 32 31 27 25 26 26 26 27 28 28 30
25 26 27 28 26 23 21 23 24 24 23 22 19 16 12 8 6 4 2 1 3 5 8 10 11 13 16 21 25 27 26 27 28 28 26 26 26 25 24 24 25 25 27 28 29 29 30 30 31 32 31 31 33 32 28 25 25 25 26 27 27 27 29
26 28 30 31 32 30 26 24 22 19 18 17 15 13 9 6 4 2 1 3 5 7 9 11 13 15 18 22 26 27 26 27 28 27 26 26 26 25 24 24 25 27 28 29 29 30 30 30 31 33 34 34 35 35 33 32 31 29 29 29 28 28 28
30 32 32 32 31 29 26 23 19 17 16 15 14 12 8 5 2 0 2 4 7 9 11 13 15 17 19 23 26 27 27 27 27 26 27 27 25 24 25 25 26 27 28 29 30 31 32 32 33 34 36 36 37 37 37 38 36 33 31 30 29 28 28
36 35 33 30 28 26 24 22 18 17 16 15 13 11 7 4 1 2 4 6 9 11 12 14 16 18 21 24 27 28 27 27 27 26 27 27 25 25 26 26 26 28 30 32 33 34 35 35 36 36 37 38 38 38 38 38 36 34 34 32 30 29 29
36 34 32 30 28 25 23 21 19 17 14 12 10 8 5 1 2 5 8 10 12 13 13 15 17 19 22 25 28 29 28 28 29 28 28 27 26 25 26 27 29 32 34 35 36 37 37 38 38 39 39 40 40 39 39 37 34 33 33 32 30 30 30

ECMWFFLT1_925_spd_027.txt.gz
Wind_Speed
12 12 11 10 9 8 8 7 8 9 8 8 8 8 8 8 10 11 11 11 12 12 12 12 12 10 9 8 7 7 7 6 6 6 5 4 3 4 5 4 4 3 1 1 2 1 1 1 2 2 1 3 5 3 1 1 3 4 4 4 4 5 6
12 12 13 12 10 9 9 9 8 8 8 8 8 9 10 11 12 13 13 13 12 12 12 12 12 11 10 10 9 8 7 7 7 7 6 5 5 4 5 4 4 3 2 2 3 4 2 1 2 2 3 6 4 3 5 6 6 6 6 7 6 6 7
13 13 14 13 11 10 10 10 9 9 9 9 8 9 10 11 11 11 11 12 12 12 12 12 12 12 12 12 12 11 10 9 9 8 7 6 6 6 5 5 4 4 2 2 3 4 3 2 3 3 4 6 4 5 8 7 7 7 7 7 6 6 7
15 15 16 15 14 12 11 11 11 10 10 10 10 9 10 10 9 8 9 10 10 10 11 11 11 11 12 12 12 12 12 12 11 10 9 8 7 7 7 6 5 4 3 2 3 4 4 4 4 5 5 5 6 8 7 7 11 11 9 8 9 9 9
17 16 17 16 16 14 13 13 12 12 12 12 11 11 10 9 8 7 7 8 8 9 10 10 10 10 10 11 11 11 11 11 11 10 10 9 8 8 7 7 6 5 4 3 3 4 5 5 6 6 7 7 7 8 7 9 12 11 8 9 11 10 9
20 18 18 17 16 15 14 14 14 14 14 14 13 12 11 9 7 6 6 6 7 8 8 9 9 9 10 10 10 10 10 10 10 10 10 10 10 8 7 6 6 5 5 4 4 4 4 6 7 7 8 9 8 9 9 9 10 10 10 9 8 7 7
22 21 19 19 17 16 15 15 15 15 16 16 15 13 12 10 8 6 5 5 5 6 7 7 7 7 8 10 10 10 10 10 10 10 10 10 10 9 7 6 6 6 5 6 5 5 4 5 7 7 9 9 10 11 11 10 9 9 8 7 6 8 8
23 23 21 20 19 17 17 16 16 15 15 15 15 14 13 11 9 8 7 6 5 5 6 6 6 7 7 8 9 9 9 9 9 9 9 9 9 9 8 6 5 5 5 6 5 5 5 5 6 7 8 8 8 8 8 9 10 9 9 8 9 9 9
24 24 23 21 20 19 17 17 17 15 14 14 14 15 13 12 11 9 8 7 5 4 5 5 5 6 6 7 8 8 8 8 7 8 8 8 8 8 7 6 5 4 5 5 5 5 5 5 5 6 6 7 7 6 6 7 8 8 8 8 8 7 6
26 25 25 22 20 19 19 18 17 17 15 14 15 15 15 13 12 10 9 7 5 4 3 3 4 5 5 6 7 7 7 7 6 6 6 6 7 7 7 7 5 4 5 4 4 4 4 5 5 5 6 6 7 6 6 6 7 7 7 8 9 8 6
27 26 25 24 22 21 21 20 19 19 17 16 16 16 15 14 13 11 10 8 6 5 3 3 3 3 4 5 6 5 5 5 5 5 5 5 5 6 6 6 6 5 5 5 5 5 5 5 5 5 5 6 7 7 8 8 8 9 9 9 10 10 10
28 27 26 25 23 23 23 22 21 21 20 18 18 17 16 15 14 13 12 10 8 6 4 4 3 3 3 4 4 4 4 3 4 4 3 3 4 5 5 6 6 6 6 6 6 6 6 5 5 6 6 6 7 8 9 10 9 9 10 10 11 11 13
29 29 28 27 26 25 25 24 23 23 22 21 20 19 18 17 16 15 14 12 10 8 6 5 5 4 3 3 3 3 3 2 2 2 2 3 3 4 4 5 6 6 7 7 7 7 7 6 6 7 7 7 8 9 10 11 11 12 12 13 14 15 14
30 30 30 29 29 28 27 27 26 24 23 22 22 21 20 18 17 16 15 13 11 9 8 7 6 5 4 2 2 2 2 2 1 1 2 2 3 4 5 6 6 7 8 9 9 9 8 7 7 7 7 7 9 9 10 12 13 14 14 13 14 15 13
31 31 30 30 31 31 30 29 28 26 24 23 23 22 21 20 18 17 16 15 13 11 9 8 7 6 4 3 2 0 1 1 1 1 1 1 3 4 5 6 7 8 10 10 10 10 10 9 8 8 8 8 9 9 9 12 14 15 15 14 14 15 13
32 32 31 32 32 32 32 31 30 29 27 25 23 23 22 21 20 19 18 16 14 12 11 9 8 6 5 4 2 1 0 1 1 1 0 1 3 5 6 7 8 9 11 12 11 11 11 10 9 10 10 10 10 10 10 11 13 15 17 17 14 14 14
31 31 32 33 34 33 33 32 32 30 28 26 24 23 23 22 21 21 20 18 16 14 12 10 8 6 5 4 3 1 1 1 1 1 2 3 4 6 6 7 8 10 12 12 12 12 11 10 10 10 11 11 11 12 11 11 13 15 17 18 16 14 16
27 28 30 32 33 33 32 32 32 32 31 29 26 24 23 24 23 23 21 20 17 14 12 10 7 6 5 5 3 2 2 2 2 3 4 5 7 8 8 9 10 11 12 13 13 12 11 11 11 11 11 12 12 12 12 12 14 15 17 20 19 17 16
24 26 28 30 31 31 30 30 30 29 26 23 23 24 24 25 25 24 23 20 17 14 11 9 7 7 7 5 4 3 3 3 4 5 7 7 8 10 11 12 13 13 13 13 13 13 12 12 12 12 12 12 12 12 13 13 14 16 18 20 21 20 18
24 25 26 27 29 29 29 29 27 26 22 20 21 23 24 26 26 25 24 20 16 14 11 10 9 9 7 6 5 5 5 5 6 8 9 10 12 13 15 15 16 15 14 13 13 13 12 13 12 13 13 13 12 12 13 13 13 15 16 18 19 20 19
23 26 27 26 26 27 29 29 27 25 25 26 25 25 26 28 28 27 24 20 16 14 12 11 11 10 9 7 6 5 5 6 7 9 11 13 14 16 17 18 18 17 15 15 14 14 14 13 13 14 14 13 13 13 14 14 14 14 15 16 17 18 18
17 20 23 24 24 25 26 27 27 25 24 25 26 26 29 31 31 29 26 22 19 17 15 14 13 12 10 8 6 5 5 7 8 10 11 13 15 17 18 18 19 19 19 19 19 19 18 17 16 16 16 15 15 15 15 15 15 14 15 15 16 16 16
12 14 17 20 22 23 24 25 25 24 24 24 26 28 31 32 32 31 28 25 22 20 19 17 14 12 9 7 4 3 5 7 9 11 13 14 15 16 17 17 18 20 21 21 21 20 20 20 19 19 19 19 18 17 17 17 16 16 15 15 15 15 15
11 12 14 16 19 21 21 22 23 23 24 25 27 30 32 33 31 29 26 25 23 22 20 17 14 11 8 5 3 2 5 8 10 12 13 14 15 16 16 16 16 17 18 18 18 18 19 21 21 20 21 21 21 21 20 20 18 17 17 17 17 16 16
12 13 13 14 17 20 20 20 21 23 24 26 28 31 32 32 30 26 24 23 22 21 19 16 13 10 6 4 2 3 6 9 11 12 13 14 15 15 15 15 15 15 15 17 18 17 18 19 20 20 21 21 22 24 25 25 23 21 19 19 19 18 18
14 14 14 13 15 18 20 19 20 22 24 26 29 31 31 31 28 25 24 22 21 19 17 14 11 8 5 2 2 4 7 10 12 13 14 15 14 14 15 15 15 14 15 16 17 16 16 17 17 19 20 21 22 23 25 27 28 27 26 24 23 22 20
15 15 14 12 12 16 19 20 20 23 25 26 29 30 30 29 26 25 23 22 20 17 15 12 9 6 3 1 4 6 9 13 15 15 16 16 15 15 15 15 15 15 15 16 15 15 15 16 16 18 19 19 20 21 23 24 26 28 29 29 30 29 25
16 15 14 12 12 14 18 20 21 23 25 27 29 31 30 28 26 24 23 21 18 15 12 9 6 3 1 3 6 9 12 16 16 15 16 16 15 15 16 15 15 16 16 15 15 16 16 17 18 20 20 20 21 21 22 23 23 24 26 27 29 29 27
17 15 13 13 13 14 17 20 22 23 25 26 28 29 28 27 27 25 23 19 16 13 9 5 3 1 2 5 8 10 13 14 13 13 15 15 16 16 15 15 15 15 16 16 16 17 18 19 20 21 21 21 22 22 23 23 23 24 26 26 28 29 29
18 17 14 14 14 15 18 21 22 24 26 27 29 29 28 28 26 24 20 16 13 10 7 4 2 1 4 7 9 11 12 12 12 13 14 15 16 15 14 14 16 17 17 17 17 18 18 19 20 22 22 23 23 24 24 22 22 24 25 26 28 30 31
18 17 15 15 15 16 18 21 22 24 28 30 30 29 28 25 21 18 15 12 10 7 6 3 0 3 5 8 11 12 12 12 13 14 15 15 15 15 15 16 17 18 19 18 18 20 20 20 22 23 24 25 25 26 25 22 22 23 23 23 25 27 29
19 17 16 16 17 18 19 20 21 22 24 27 29 27 25 22 18 14 12 10 8 6 4 2 2 5 7 9 12 13 12 13 15 16 16 17 17 16 17 18 19 19 20 21 21 22 22 22 24 24 25 26 27 27 24 23 23 23 22 22 23 23 24
20 17 16 18 19 20 20 21 22 23 25 26 27 25 22 20 17 13 10 8 6 4 3 2 4 6 8 10 12 14 14 14 16 18 17 18 19 20 20 21 20 19 20 22 23 24 24 24 24 25 25 26 28 27 24 24 24 25 25 25 25 25 25
18 16 18 21 21 21 23 25 28 30 31 29 26 22 20 18 15 11 7 6 4 2 2 4 5 7 9 10 13 15 15 15 16 18 18 19 22 23 22 21 21 20 21 22 23 24 25 26 27 27 27 28 29 29 28 28 28 28 28 29 29 28 27
15 16 20 23 24 25 27 31 34 34 32 29 25 21 18 15 13 9 6 4 2 2 4 6 6 8 10 12 14 16 17 17 19 19 19 21 23 23 22 21 21 21 21 23 25 27 29 30 30 30 31 32 33 33 33 32 30 29 29 29 28 28 27
16 19 22 26 30 32 33 35 35 33 30 27 23 20 17 14 11 8 5 3 2 3 5 6 7 9 11 13 15 17 18 21 22 20 20 22 24 22 21 21 21 22 24 27 30 31 32 32 32 31 32 34 35 35 35 33 31 30 29 28 27 28 28
20 25 29 33 36 36 35 35 33 29 27 25 22 19 16 12 10 7 4 2 2 3 5 7 8 10 12 14 17 19 22 24 24 21 19 21 22 21 21 22 24 27 29 31 32 33 33 32 31 31 32 33 33 33 32 31 29 28 27 27 27 27 28

ECMWFFLT1_925_spd_030.txt.gz
Wind_Speed
7 9 9 9 8 8 8 8 8 8 7 7 7 6 6 6 6 6 6 6 6 6 5 5 5 4 4 4 5 4 4 4 3 2 2 2 2 2 3 4 4 3 2 3 3 2 1 1 2 4 6 4 4 5 6 4 3 4 5 6 7 8 9
7 8 9 9 9 9 8 8 8 8 7 7 7 7 8 8 8 8 7 7 7 6 6 6 6 5 5 5 5 5 4 5 5 4 3 2 3 3 3 3 3 3 1 1 3 3 2 1 1 1 2 4 5 4 5 7 7 8 9 9 9 8 8
8 8 9 9 9 9 8 8 8 8 8 7 8 8 8 8 8 7 7 7 7 7 6 7 6 6 7 7 7 6 6 5 5 5 4 3 3 3 3 3 3 4 4 2 2 3 3 3 3 3 3 3 3 4 7 10 11 11 12 12 12 12 12
10 9 9 9 9 9 9 9 8 7 8 8 8 8 8 8 7 7 7 7 7 7 6 6 6 6 6 7 7 7 7 6 5 5 5 4 3 3 3 2 2 2 2 2 2 3 4 4 4 4 5 5 5 6 7 9 11 11 11 12 13 14 14
12 11 10 10 10 9 9 9 8 8 8 8 8 8 8 8 7 6 6 6 6 6 6 6 6 5 5 5 6 6 6 6 6 5 5 4 3 3 3 2 2 2 2 2 2 2 3 4 4 5 5 6 7 7 6 7 10 11 11 12 13 13 13
13 12 10 10 10 9 9 9 9 9 9 9 9 9 10 9 8 7 6 5 5 5 5 6 6 6 5 5 5 6 6 6 6 5 5 5 4 4 3 3 2 2 2 2 2 2 3 4 5 5 6 6 7 8 8 9 10 10 10 11 12 12 13
13 13 11 10 10 10 9 9 10 9 9 9 10 9 10 10 8 7 7 6 5 5 5 6 5 5 5 5 6 6 6 6 6 6 6 5 5 4 4 3 3 3 2 2 2 2 3 4 4 5 6 7 7 9 9 9 9 8 8 8 9 10 10
13 13 12 11 11 11 10 10 10 9 9 10 10 10 11 11 9 9 8 7 7 6 5 5 5 5 4 5 5 5 5 5 5 5 5 5 5 5 4 4 3 3 4 3 3 3 3 4 4 5 6 6 6 6 7 7 7 7 7 6 7 8 9
13 13 13 12 12 12 11 11 11 10 10 9 10 11 11 11 10 10 9 8 8 7 6 6 5 5 4 4 4 5 5 5 5 5 5 5 5 4 4 4 3 3 4 4 4 4 4 4 5 6 6 7 6 5 5 5 5 5 5 5 6 6 6
15 14 13 14 14 14 13 12 11 11 11 10 10 11 12 11 10 10 9 9 9 8 7 7 6 6 5 5 5 5 5 5 5 4 4 4 4 4 4 3 3 3 4 4 4 4 5 5 6 6 7 7 8 6 5 5 5 5 4 5 5 5 5
17 16 15 14 14 14 14 13 12 12 12 11 11 11 12 12 11 11 10 9 9 8 8 7 7 6 6 5 5 5 5 5 5 4 4 3 3 3 3 3 2 2 3 4 4 4 5 6 6 7 7 8 8 8 8 7 6 7 7 7 7 7 6
18 17 16 14 14 14 15 15 14 14 14 14 13 13 13 13 12 12 11 10 10 9 9 8 8 7 6 5 5 5 5 5 4 4 4 3 2 2 2 2 1 1 2 3 3 4 5 6 7 8 8 8 9 9 10 9 7 8 9 9 9 9 9
18 17 16 15 15 15 15 15 15 15 15 15 15 15 15 15 14 14 13 12 11 11 10 9 8 8 7 6 6 5 5 5 5 4 4 3 3 2 2 1 0 0 2 3 3 5 6 6 7 9 9 9 10 10 11 12 10 9 11 12 12 12 12
15 15 14 15 15 15 15 15 15 15 15 16 16 17 17 16 16 16 15 14 13 12 11 10 9 8 8 7 7 6 6 6 5 5 4 4 4 2 1 1 1 1 2 3 4 5 6 6 8 9 9 10 10 10 11 13 13 12 13 13 12 13 12
15 15 15 15 16 16 15 15 15 15 16 16 17 18 18 18 18 17 16 16 15 13 12 12 11 10 9 9 8 8 7 7 6 6 5 4 4 2 2 2 2 2 3 4 5 7 7 8 9 9 9 10 11 11 11 13 14 14 14 14 13 14 13
15 15 16 17 17 17 16 15 15 15 16 16 16 18 19 19 20 19 18 17 16 15 14 13 12 11 11 11 10 9 8 8 7 7 6 4 3 2 2 3 3 4 4 6 7 8 9 8 9 9 10 10 11 12 12 13 15 15 16 15 14 14 14
13 14 16 17 17 16 16 16 15 16 16 15 16 18 19 20 21 21 20 18 17 17 16 15 14 13 12 12 11 10 9 8 8 7 6 5 3 3 3 4 5 5 6 8 9 10 9 9 9 10 11 11 11 12 13 13 15 16 16 16 15 15 14
11 13 15 16 16 15 15 15 15 15 15 16 17 18 18 19 19 19 20 19 19 19 18 17 16 15 14 13 12 11 10 9 8 7 6 5 4 4 4 4 5 6 7 9 10 11 11 11 11 11 11 11 12 12 12 13 15 16 17 17 17 15 15
10 11 13 14 14 15 16 16 15 15 15 17 18 16 15 16 17 19 20 21 21 21 20 19 18 16 15 14 13 12 11 10 8 7 6 5 5 4 4 5 6 7 8 10 11 11 11 12 12 12 12 12 12 12 13 14 15 16 17 18 18 17 16
8 10 13 13 13 14 15 15 16 16 16 18 18 18 19 21 22 23 23 23 23 23 21 20 19 18 17 15 14 13 11 10 9 7 6 5 5 5 6 7 7 8 9 10 11 11 11 11 12 12 12 12 12 13 14 14 15 16 17 18 17 17 16
6 8 11 13 14 15 14 15 17 17 18 19 19 20 22 25 25 25 24 23 22 22 21 20 19 18 17 16 14 12 11 9 8 6 5 5 5 6 7 8 9 9 9 10 12 12 13 13 13 13 13 13 13 14 14 14 15 15 16 17 17 16 16
6 6 8 10 11 12 13 15 16 16 18 19 19 20 22 23 25 26 24 23 21 20 19 18 18 18 17 15 14 12 10 8 7 5 4 4 5 7 8 9 10 10 12 14 16 17 17 17 18 17 16 14 14 14 15 15 15 16 16 16 17 16 16
7 7 8 8 8 9 11 12 13 15 17 17 18 19 19 20 22 22 21 21 20 18 16 17 18 19 17 14 12 10 9 7 6 4 4 5 6 7 9 10 11 12 15 18 19 18 18 18 19 20 19 18 17 16 16 16 16 17 17 17 17 17 16
8 8 8 9 8 8 9 10 12 15 15 15 17 17 17 18 19 19 19 20 19 17 17 19 21 21 19 15 12 9 8 7 5 4 4 5 6 8 9 10 11 12 14 15 16 16 17 19 20 21 21 21 21 20 19 19 18 17 17 18 18 18 17
8 9 9 9 9 9 9 10 12 13 14 15 16 16 17 18 19 20 20 20 20 21 21 21 21 20 18 15 12 8 6 5 4 4 4 5 7 8 9 10 11 12 12 13 15 16 17 19 20 21 21 21 22 22 23 23 22 21 20 19 20 19 19
9 9 9 9 9 10 10 11 12 12 14 15 16 16 17 18 20 22 21 19 20 22 22 21 20 18 15 13 11 7 4 3 3 4 4 5 7 8 9 11 12 12 12 13 15 15 15 16 17 18 19 20 22 23 24 25 25 25 24 23 23 22 21
10 10 10 10 10 10 11 12 12 12 13 14 15 16 17 18 20 20 20 20 21 23 22 20 18 16 13 10 7 5 4 3 3 4 5 6 8 9 10 11 12 13 12 12 13 13 13 13 14 15 16 18 20 21 22 23 24 25 26 27 27 27 25
11 11 11 11 11 11 11 11 12 12 13 14 16 16 17 19 19 19 21 23 24 24 22 18 15 12 10 6 3 3 4 3 4 5 6 7 8 9 10 11 12 13 13 12 12 13 13 13 14 15 16 17 19 19 20 21 23 24 26 27 28 27 26
11 11 12 11 12 12 11 12 12 12 13 14 15 15 16 17 19 22 24 26 26 25 20 16 12 9 6 3 1 2 3 4 5 5 6 8 8 9 10 10 11 12 12 12 13 14 16 15 15 17 18 19 20 20 21 21 22 25 27 28 28 28 27
12 12 12 13 13 13 11 11 11 11 13 15 14 14 15 18 21 25 27 27 27 25 19 14 10 7 4 3 2 1 4 5 5 6 8 8 9 10 10 11 12 13 13 13 13 14 16 16 17 19 21 22 23 24 24 23 23 25 27 29 30 32 33
13 13 14 14 13 12 12 12 11 11 13 14 13 14 17 21 24 26 27 26 23 20 17 12 9 6 4 3 3 2 5 6 6 8 9 9 10 11 11 14 15 14 14 14 15 17 18 18 19 21 23 24 24 25 25 24 24 24 24 26 28 29 31
14 15 15 14 14 13 12 10 8 8 10 13 15 17 22 26 27 25 23 21 18 16 15 12 8 6 4 3 3 3 5 7 8 9 10 11 12 12 13 15 15 15 16 16 17 18 19 20 21 22 23 24 25 26 24 23 23 24 23 24 25 25 26
16 16 15 15 14 11 7 8 9 10 12 15 19 24 28 29 27 23 20 18 16 14 13 10 7 5 3 2 4 5 6 8 9 10 11 13 14 15 15 15 14 14 15 16 17 19 20 22 23 23 24 25 26 25 23 23 24 24 24 25 25 25 25
16 16 17 16 12 8 9 11 12 14 17 22 27 29 29 28 26 23 20 17 15 13 11 8 5 3 2 2 4 6 7 8 10 12 14 16 16 16 16 15 14 14 17 19 21 23 24 26 26 25 26 27 28 27 26 26 26 26 26 26 26 26 26
18 18 18 15 10 10 11 13 16 21 26 30 32 30 28 26 25 22 19 16 13 10 8 7 5 2 0 2 5 7 8 10 12 14 16 17 17 16 16 16 15 17 20 21 23 25 27 29 29 29 29 30 31 31 31 30 28 27 26 26 26 26 25
19 17 14 13 12 12 14 20 26 31 32 31 28 26 24 23 21 18 15 13 11 8 6 5 3 1 2 5 8 10 12 14 15 15 15 15 17 16 16 16 17 19 22 23 26 28 30 30 30 29 29 30 31 31 30 29 28 27 26 26 26 26 25
17 14 12 13 15 17 23 28 31 31 28 24 21 19 18 17 16 14 13 12 11 8 6 4 1 2 5 7 9 11 13 14 15 14 13 14 16 16 17 18 21 24 26 28 29 30 30 29 28 27 27 28 28 28 27 26 26 26 26 26 26 26 26

ECMWFFLT1_925_spd_033.txt.gz
Wind_Speed
8 8 8 7 6 7 6 6 5 5 4 4 4 5 5 5 5 4 4 4 4 4 4 6 6 6 7 6 7 7 7 7 7 6 4 3 2 2 3 3 2 1 2 2 3 3 2 2 1 1 2 3 4 7 8 9 9 8 7 6 5 7 7
9 9 9 8 7 7 6 5 5 5 5 5 5 5 6 6 6 5 5 5 5 6 6 7 7 7 7 7 7 8 7 7 7 7 6 6 6 5 4 2 0 1 2 4 3 1 1 0 2 2 1 3 5 6 8 8 9 12 12 10 11 11 9
11 10 9 9 8 7 7 6 5 5 5 5 5 5 5 6 6 5 5 5 5 6 6 7 7 7 8 8 8 8 8 8 7 7 6 6 6 6 6 5 4 3 1 3 4 2 2 3 3 2 1 2 3 5 9 10 10 13 15 15 16 15 13
12 11 10 10 9 8 8 7 6 5 5 5 5 5 5 5 5 5 4 4 5 5 5 5 6 6 6 7 7 8 8 8 8 7 7 6 5 5 6 6 6 6 4 3 3 3 3 2 3 3 3 3 4 5 8 9 8 11 14 14 13 13 13
13 12 12 11 10 9 8 8 7 6 6 6 6 5 5 4 4 4 4 4 4 4 4 5 5 5 6 6 7 7 8 8 8 8 7 7 7 6 6 6 6 5 5 5 5 4 4 4 4 4 5 5 5 5 6 6 6 9 12 12 13 14 13
14 13 12 12 11 10 9 8 8 7 7 7 6 6 6 5 4 4 3 3 3 3 4 4 4 5 5 5 6 6 7 7 7 7 7 7 7 6 6 6 6 6 6 6 5 4 3 4 5 4 5 6 6 6 7 7 8 9 10 11 12 13 13
14 13 12 12 12 10 9 9 8 7 7 7 7 7 7 6 5 4 3 3 3 3 3 3 3 4 3 4 5 5 6 6 6 7 7 6 6 6 6 5 5 6 6 6 5 5 5 5 5 6 6 6 6 8 8 8 9 8 8 10 10 10 11
13 13 12 12 12 11 10 10 9 7 7 7 7 7 8 7 6 5 4 4 3 3 3 2 2 2 2 3 4 4 4 5 5 5 6 6 6 6 6 5 4 5 6 6 6 6 6 6 5 6 6 6 6 6 6 7 7 6 5 6 8 8 9
14 14 13 12 13 12 11 10 10 9 8 8 8 9 9 8 7 7 6 5 5 4 3 3 2 2 1 1 3 3 3 3 4 4 4 5 5 6 6 5 4 5 6 5 5 6 6 6 5 5 5 5 6 5 5 5 6 4 4 4 5 6 6
15 14 13 13 13 13 12 11 11 11 10 9 9 10 10 10 9 8 7 7 6 5 5 4 3 3 2 2 2 2 3 3 3 3 3 3 4 4 5 5 4 5 5 5 5 5 5 5 5 5 5 5 5 5 5 5 5 6 7 6 6 6 4
15 14 13 13 13 13 13 12 12 12 12 11 11 12 12 11 11 10 9 9 8 8 7 6 5 5 4 4 4 3 4 4 3 3 3 3 2 2 3 3 3 3 4 4 4 4 4 4 5 5 5 5 5 5 5 5 6 9 11 10 10 9 8
15 14 13 13 13 13 14 13 13 13 14 13 13 14 14 13 13 13 12 11 11 10 9 8 8 7 6 6 5 5 5 5 5 5 4 3 3 2 2 1 1 2 3 3 2 3 4 4 5 5 6 6 6 6 7 7 6 8 11 12 12 12 12
14 14 14 14 14 14 15 15 14 14 15 15 15 15 16 15 15 15 14 14 13 13 12 12 11 10 9 8 7 7 7 6 6 6 5 5 4 4 4 3 2 1 1 2 2 3 4 4 4 6 7 7 7 7 8 9 8 9 12 13 14 15 14
13 14 14 15 15 15 15 15 16 15 15 15 15 16 17 17 17 16 16 15 15 15 14 14 13 12 11 10 9 8 8 8 7 7 7 6 5 5 4 3 3 3 2 1 2 4 4 4 6 7 7 7 8 8 8 10 10 10 12 13 13 15 14
12 13 14 14 15 15 15 15 15 15 16 16 16 17 17 18 17 17 17 17 17 16 16 16 15 14 13 12 11 10 10 9 9 9 8 7 7 7 5 4 4 4 3 3 3 4 4 5 7 7 7 8 9 9 9 11 12 12 13 13 13 14 14
12 15 15 14 14 14 15 16 16 16 16 16 16 17 18 18 18 18 19 19 18 18 17 17 16 16 14 14 14 13 12 11 11 10 9 8 8 7 6 5 4 4 4 3 4 4 5 5 6 7 8 9 10 11 11 11 12 13 14 14 14 14 14
10 14 13 13 13 14 17 18 18 18 18 17 17 18 18 18 19 20 20 20 19 19 19 18 17 17 16 15 15 14 13 13 12 11 11 10 8 7 6 5 5 4 4 4 5 5 6 6 6 8 9 9 10 11 11 11 12 13 14 15 14 14 15
12 14 13 13 15 15 17 19 18 17 17 18 18 18 19 20 21 21 21 20 20 19 19 18 17 17 16 15 15 15 13 13 13 12 11 10 9 7 6 6 5 4 4 5 6 6 7 7 8 9 9 9 10 11 11 11 12 13 15 16 16 16 16
15 16 14 13 13 14 16 17 18 18 17 17 18 19 19 20 22 23 22 21 20 20 18 18 17 17 16 15 15 15 14 13 12 12 11 10 9 8 7 7 6 5 5 6 6 7 7 8 9 9 10 10 11 12 12 13 13 14 15 17 17 17 16
12 13 13 13 12 12 14 16 17 18 18 18 19 19 20 21 22 22 21 21 20 20 19 19 19 18 17 16 16 15 14 14 12 11 10 9 8 8 7 7 6 6 6 7 6 6 6 8 9 9 10 11 11 12 13 14 14 15 16 16 17 16 16
5 7 10 11 11 11 13 17 19 19 19 19 20 19 20 21 20 17 17 19 19 20 20 20 20 20 19 17 16 16 14 13 12 11 10 9 8 7 7 7 7 7 7 7 8 7 8 10 10 11 11 11 12 13 14 14 15 15 16 16 16 16 16
4 6 8 9 10 12 13 16 19 20 19 19 20 20 18 18 17 15 15 18 21 22 21 20 20 20 19 17 16 17 16 13 12 10 9 8 8 7 7 7 8 8 9 11 13 14 15 13 12 13 12 12 12 13 14 14 15 16 16 16 16 16 16
6 7 8 9 10 11 12 14 15 17 18 18 17 17 15 15 17 18 17 20 22 22 19 18 18 19 19 19 18 17 17 13 11 9 8 8 7 7 7 8 8 10 12 15 16 16 15 13 13 14 14 14 13 14 14 14 15 16 16 16 16 16 16
7 7 8 9 10 11 11 12 12 13 14 14 15 15 15 16 18 20 22 23 21 19 19 19 20 21 22 21 19 16 15 11 9 9 8 7 7 7 7 8 8 10 12 13 14 14 14 15 16 16 16 16 16 16 16 16 16 16 16 17 17 17 16
8 8 8 9 10 10 11 11 12 12 13 13 14 14 15 17 19 20 22 22 20 20 22 21 21 23 24 23 20 14 11 10 8 8 7 7 7 7 7 8 9 10 11 12 13 14 15 17 17 17 17 17 16 17 18 18 18 17 17 18 18 18 18
9 9 9 9 10 10 11 12 12 13 13 13 13 14 15 17 18 17 20 20 16 19 22 20 20 23 24 24 22 14 9 8 7 6 6 6 6 7 8 9 10 10 11 12 13 13 13 14 15 15 15 15 16 18 19 19 19 19 19 19 20 20 19
9 9 9 10 10 11 11 12 12 12 13 13 14 14 15 16 17 16 18 18 15 17 22 21 21 23 24 23 21 15 8 7 6 4 5 6 7 8 9 10 10 11 11 11 12 12 11 11 12 12 13 13 15 18 19 20 20 21 22 23 24 23 22
10 10 10 10 11 11 11 12 13 12 12 12 13 14 14 14 16 17 16 16 16 18 21 21 21 22 21 20 19 14 7 5 4 5 6 7 8 9 10 10 11 11 11 11 12 13 12 11 12 13 14 15 16 17 17 18 19 20 22 24 26 26 23
10 11 11 11 11 12 12 12 12 12 13 12 13 13 13 13 15 14 14 16 18 19 19 19 18 18 17 16 14 10 6 3 4 6 7 8 9 10 10 10 10 10 10 11 13 15 14 13 13 14 15 16 16 17 17 17 18 20 22 24 26 27 28
11 11 11 12 12 12 12 12 12 12 12 12 12 12 12 13 12 11 15 17 19 21 20 18 16 16 14 12 9 7 4 4 5 7 8 8 10 10 11 11 11 11 12 13 15 16 16 15 14 14 17 17 18 18 18 17 18 20 22 24 27 29 31
12 12 12 12 12 12 12 12 11 11 12 13 12 8 6 7 7 11 15 16 19 23 23 18 16 14 12 9 8 6 4 5 6 7 8 9 10 10 11 12 13 14 14 14 15 16 16 15 14 15 17 18 20 20 19 18 19 20 21 23 24 26 28
12 13 13 13 13 13 12 12 12 12 11 9 6 5 9 11 11 11 13 17 21 24 23 18 14 12 10 9 8 6 2 5 7 7 8 9 9 10 11 13 15 16 15 15 15 16 17 17 15 15 17 20 22 22 21 21 21 21 21 22 22 23 24
13 13 13 13 13 13 13 12 12 10 6 4 6 10 11 12 13 14 16 20 22 21 20 16 13 10 8 7 7 5 2 4 6 6 8 9 10 11 12 12 13 11 9 10 12 14 15 16 16 16 17 20 23 23 22 22 22 22 23 23 23 23 23
14 14 14 14 14 14 14 13 11 10 9 9 10 12 14 15 17 17 17 19 19 17 16 14 12 9 7 5 4 2 0 2 5 6 8 10 11 11 11 10 8 6 4 6 9 12 15 18 20 20 19 21 24 26 26 26 26 26 26 25 24 24 24
14 14 15 15 15 16 15 10 9 11 11 11 13 16 17 18 19 17 15 15 15 15 14 12 10 8 6 4 1 1 2 4 7 8 9 10 11 11 11 10 8 9 10 12 15 19 21 22 23 23 23 24 26 27 28 28 27 26 25 24 23 23 23
16 16 16 16 16 16 12 8 11 12 12 14 16 18 18 18 18 17 15 14 13 13 12 10 8 6 4 1 2 4 4 6 8 7 8 10 11 11 11 10 10 14 17 19 22 24 25 24 23 22 22 22 23 23 25 25 25 25 24 23 23 23 22
17 17 17 16 14 11 9 10 11 12 15 17 18 17 17 17 17 16 15 13 12 12 12 10 7 3 1 2 3 4 5 7 8 8 8 10 10 10 10 12 14 18 20 21 22 23 22 21 20 20 20 21 21 22 22 23 22 22 22 22 22 22 22

ECMWFFLT1_925_spd_036.txt.gz
Wind_Speed
13 14 11 9 9 8 8 7 8 8 8 8 9 9 10 10 10 10 8 8 10 11 10 10 9 10 10 10 10 10 10 10 10 8 7 7 7 4 3 4 6 5 3 2 4 3 1 1 2 4 3 5 4 4 5 5 5 5 7 8 8 7 6
15 14 11 10 9 9 8 7 8 8 8 8 9 9 10 10 10 10 9 10 13 13 11 10 11 11 12 12 12 12 11 11 11 11 12 12 10 7 3 3 5 6 6 3 4 4 2 1 2 2 2 4 5 5 6 6 6 6 6 9 11 11 10
16 14 13 12 10 9 8 7 7 7 7 8 9 8 9 9 9 9 9 10 11 11 11 10 10 11 12 12 13 13 13 13 12 12 12 11 10 10 10 8 6 4 4 3 3 3 2 2 2 2 2 2 2 4 6 6 6 6 8 9 11 12 13
17 16 16 13 11 10 8 8 7 7 7 7 7 7 7 7 8 8 9 9 9 9 9 9 9 9 10 10 11 12 12 12 12 11 11 11 10 11 12 12 12 10 7 7 6 5 5 3 2 3 5 6 5 6 5 5 6 8 9 9 9 11 12
17 16 17 14 12 11 9 8 8 8 8 7 6 6 6 6 7 7 7 7 8 8 8 8 8 9 9 9 9 10 11 11 11 10 10 11 11 11 11 11 11 12 11 11 9 9 8 7 5 3 6 9 7 8 9 8 9 10 10 8 7 8 9
17 16 17 15 13 12 11 9 9 9 9 8 7 6 6 6 5 6 6 6 6 7 7 7 8 7 7 9 9 9 10 10 10 10 10 10 10 9 10 9 10 11 10 8 7 7 6 6 7 5 8 10 7 9 11 11 10 10 9 8 5 5 8
17 16 16 16 14 13 12 10 10 10 10 9 8 8 7 6 6 5 5 5 5 6 6 7 7 6 7 8 8 8 8 8 8 8 9 9 9 9 9 8 8 8 7 7 7 7 8 8 8 7 7 9 8 9 10 12 11 8 8 8 5 2 4
17 16 16 16 15 14 13 12 10 10 10 10 9 9 8 8 7 6 6 5 5 5 5 6 6 7 8 6 6 7 7 7 7 8 9 9 8 8 8 8 8 8 7 7 7 8 8 7 6 6 5 5 6 6 7 11 13 8 5 5 6 5 3
17 16 14 15 15 13 13 13 12 9 10 10 10 10 10 9 9 8 7 7 6 6 5 5 5 5 6 5 5 6 6 6 7 7 7 7 8 8 8 8 7 7 7 7 6 7 7 6 5 5 5 4 3 4 4 6 9 10 14 14 6 4 5
17 16 14 14 16 14 12 12 12 11 10 10 11 12 11 11 11 10 9 9 8 8 7 6 6 5 6 5 5 5 6 5 5 5 5 5 6 5 6 7 5 5 6 5 5 6 5 5 6 5 6 5 3 2 3 3 5 7 13 18 13 10 13
16 16 14 13 14 14 12 11 12 12 11 10 11 13 12 12 12 12 11 11 11 10 9 8 8 6 6 6 6 5 6 6 5 5 5 5 5 4 5 6 4 3 5 5 4 5 4 4 5 5 6 6 5 4 2 2 4 7 13 18 16 15 18
13 13 13 11 12 13 13 11 11 12 12 11 11 12 13 13 13 13 13 13 12 12 11 10 10 9 7 7 7 6 7 7 6 6 6 5 4 4 4 4 4 2 3 4 3 3 4 4 4 5 5 5 5 6 6 4 3 5 11 16 18 19 19
13 12 11 10 10 11 11 11 10 11 12 12 12 12 14 14 14 15 15 15 14 13 13 12 12 11 10 10 9 8 9 8 7 8 7 5 5 4 3 3 3 1 2 4 3 3 4 3 4 6 5 4 4 4 6 7 5 7 12 14 16 18 17
11 11 11 10 10 10 10 10 11 10 11 12 12 13 13 14 15 16 16 16 15 14 14 13 13 12 11 11 10 10 10 9 8 8 8 7 6 5 4 3 3 3 1 3 1 2 3 3 4 6 5 5 6 6 7 9 7 9 13 14 14 16 16
9 8 9 9 9 10 11 11 11 11 12 13 13 13 14 15 16 17 17 16 16 15 15 14 14 14 13 12 11 11 11 11 10 9 10 9 7 7 7 4 4 4 2 1 1 3 3 3 4 6 6 6 7 8 8 10 11 10 13 16 17 17 17
10 8 9 10 8 8 10 12 12 12 13 14 15 15 16 17 18 19 19 18 17 16 15 15 15 14 13 13 12 12 11 11 10 10 11 10 8 9 9 6 4 4 3 2 2 2 3 4 4 5 7 7 8 9 9 9 11 12 14 17 17 17 17
12 11 12 13 11 9 11 14 14 13 13 15 17 16 16 17 20 20 20 19 18 17 16 15 15 15 14 13 12 12 12 11 10 11 11 10 9 10 10 8 6 5 5 4 3 3 3 4 4 6 8 8 9 10 9 9 10 12 14 16 16 17 17
11 12 12 12 13 13 17 20 20 18 18 20 22 21 20 20 22 23 23 21 19 18 17 16 15 15 14 13 12 12 11 10 10 11 11 10 10 10 9 9 7 6 5 4 3 4 4 4 5 6 8 9 9 10 11 11 12 13 15 17 18 19 19
11 14 12 11 12 15 19 22 20 18 21 26 29 29 28 26 24 21 19 18 19 19 19 19 19 18 17 15 14 13 12 11 10 10 10 10 10 9 8 8 7 6 6 5 5 5 5 5 5 6 8 9 10 11 12 13 13 14 16 18 19 20 20
10 12 13 13 13 15 18 18 15 14 19 25 30 31 28 26 21 16 14 16 21 20 18 18 18 15 16 17 16 15 14 13 11 10 10 10 9 8 8 7 7 7 7 7 7 6 6 5 5 7 9 10 10 11 12 13 13 14 16 17 18 19 19
4 5 8 10 13 15 16 15 14 15 18 23 28 28 24 21 19 18 19 22 24 22 18 15 14 14 14 16 17 18 18 16 14 12 11 9 8 8 8 8 8 7 8 8 8 7 7 7 9 12 13 12 12 13 14 14 14 15 16 17 18 18 18
2 2 4 7 10 11 12 13 14 16 20 23 25 24 22 20 19 20 23 24 25 24 21 17 17 19 18 15 15 17 19 18 17 15 12 10 9 9 9 8 8 8 9 11 10 10 10 11 14 14 13 13 12 13 14 14 14 15 15 16 16 17 17
3 4 5 7 9 9 10 12 13 15 18 20 20 20 19 20 21 21 21 22 24 24 23 21 21 23 23 19 16 15 17 18 17 15 13 12 11 10 10 9 9 10 11 12 12 13 13 13 13 12 13 13 14 14 15 15 15 15 15 15 16 16 16
4 5 6 7 8 9 10 12 13 15 16 15 16 17 15 15 19 20 19 19 22 21 20 21 21 22 23 21 18 17 17 17 17 14 12 12 12 10 10 9 9 9 9 10 11 12 12 12 13 14 15 15 14 14 15 16 17 17 16 16 16 16 16
5 5 6 7 7 8 10 11 12 13 14 14 14 14 14 13 15 17 17 17 19 20 20 21 21 20 22 21 18 16 16 16 17 15 12 11 11 9 8 8 8 7 7 8 10 12 12 14 15 16 16 15 14 14 15 16 18 18 18 17 17 17 18
6 6 7 7 7 8 9 10 12 12 13 13 14 14 13 13 13 14 14 14 15 16 19 22 21 19 20 20 17 16 16 16 16 15 11 10 9 9 7 6 7 8 9 10 11 12 12 12 13 13 12 12 13 13 14 16 18 20 21 21 20 19 18
7 8 7 8 8 8 9 10 11 12 13 13 13 12 13 13 13 13 13 12 11 13 17 18 16 15 16 16 16 17 17 16 16 14 11 10 9 8 7 7 9 10 11 11 11 11 11 11 10 10 10 10 11 13 15 17 18 19 21 24 26 26 23
7 8 8 9 9 9 10 11 11 11 12 13 13 12 12 13 14 13 12 11 11 13 13 12 11 13 15 16 17 17 16 15 14 12 9 8 7 7 8 9 11 12 11 12 12 12 12 13 14 14 14 14 16 16 17 17 18 19 19 21 24 25 25
7 8 9 9 10 10 11 12 11 11 12 13 13 13 12 12 12 11 10 11 12 12 11 12 13 15 17 18 17 14 13 13 11 8 6 5 6 7 8 9 11 11 11 11 13 14 14 16 17 17 16 17 17 18 18 17 17 19 19 20 21 22 23
8 8 9 9 10 11 11 11 12 11 12 12 13 13 13 10 9 9 9 11 13 13 14 14 14 15 16 16 15 11 9 8 6 4 4 4 4 6 8 10 11 12 12 12 14 16 16 16 16 15 16 17 17 18 18 18 18 19 19 20 21 22 23
9 9 9 10 10 11 10 11 11 11 12 12 11 10 8 7 7 8 10 12 13 15 15 14 13 14 13 13 12 8 5 3 2 1 2 3 5 7 9 10 11 12 12 13 14 14 13 12 12 12 13 16 17 18 19 19 19 19 19 20 21 21 22
10 10 10 11 11 11 12 12 12 12 12 10 6 4 6 9 10 10 10 11 13 15 17 15 14 13 12 10 9 8 6 3 1 1 3 4 5 7 8 9 11 12 13 13 12 11 10 10 11 12 13 16 18 19 19 18 18 20 22 23 24 24 24
10 10 10 11 11 11 12 12 13 13 9 4 5 8 9 10 11 11 11 13 15 17 18 17 14 13 11 9 7 6 5 4 2 1 2 3 5 7 8 10 12 11 10 10 9 9 10 12 14 16 17 18 19 20 20 21 23 25 27 28 28 27 27
9 9 9 10 11 12 12 12 13 13 7 8 10 10 11 10 11 12 12 14 17 17 17 16 15 12 10 8 7 5 5 4 2 3 4 5 6 7 8 10 9 6 6 8 9 11 14 16 19 20 20 19 19 21 22 24 25 24 24 25 25 24 24
10 9 10 11 12 14 15 15 15 11 8 12 11 11 12 12 12 13 13 15 17 16 14 12 12 11 10 8 7 6 5 5 3 4 5 5 7 8 8 9 8 6 7 11 14 17 20 21 20 19 18 17 18 19 20 21 22 22 21 21 20 20 20
11 12 13 13 13 15 17 15 10 7 10 13 12 12 13 13 14 14 14 15 15 14 12 10 9 9 9 9 7 6 4 2 1 2 3 4 6 7 7 8 9 10 13 17 20 21 21 19 16 15 16 17 18 19 20 21 23 22 21 19 19 19 19
12 11 11 11 12 13 12 8 10 12 13 13 14 14 14 14 15 15 14 15 14 13 13 11 9 8 8 7 7 5 4 3 3 5 6 6 5 6 7 9 12 15 19 21 20 18 16 14 14 15 17 19 20 20 21 22 22 21 20 18 18 19 19

ECMWFFLT1_925_spd_039.txt.gz
Wind_Speed
24 23 22 21 19 18 18 16 14 14 13 11 10 10 10 11 11 11 10 11 11 9 9 9 8 9 10 11 11 11 12 11 9 10 9 7 5 4 3 4 3 3 3 1 2 3 3 2 0 0 1 1 0 2 4 4 4 4 3 4 6 7 9
24 24 23 21 19 19 20 18 16 16 14 13 12 12 12 11 11 14 15 13 12 12 11 11 11 11 12 12 11 11 13 14 12 11 11 10 8 6 3 3 3 3 3 3 2 2 2 2 0 2 1 1 1 0 1 2 3 4 5 5 6 7 8
25 24 23 22 20 20 20 18 16 16 15 14 14 13 12 11 11 13 14 13 12 12 12 13 13 13 13 13 13 12 12 13 12 11 12 11 12 12 9 7 5 4 3 3 4 3 2 2 1 1 3 4 3 2 2 1 3 4 5 6 7 7 8
26 24 24 23 21 21 20 18 17 17 16 15 14 13 11 11 11 11 12 13 12 11 10 11 11 11 12 12 12 11 11 12 13 12 13 12 12 14 14 14 12 10 9 7 7 8 7 4 2 2 6 8 5 5 5 3 5 5 4 4 7 8 8
26 26 25 25 23 21 21 19 18 18 17 15 13 12 12 12 12 10 11 12 11 11 11 10 9 9 10 10 11 11 11 11 12 12 13 13 13 13 14 14 13 13 12 10 8 9 10 8 6 4 6 8 5 7 8 7 8 7 6 4 3 2 4
26 24 24 25 23 22 22 22 20 18 17 16 14 13 12 13 13 10 9 10 10 10 11 10 8 8 9 9 11 12 11 11 10 11 12 12 12 12 11 11 11 11 11 11 9 9 10 10 10 6 7 7 4 7 9 9 10 8 6 6 5 4 4
26 23 22 24 22 21 22 22 19 17 17 15 14 13 12 13 13 9 7 9 9 10 11 11 9 8 8 8 9 10 9 9 9 10 11 11 12 11 9 8 9 9 9 9 9 10 9 10 10 7 6 7 5 6 8 9 11 12 11 8 4 5 6
25 22 20 21 20 20 20 20 18 17 16 15 14 12 12 12 12 10 8 8 9 9 10 11 10 9 7 6 7 8 9 9 9 10 10 11 12 11 8 7 8 8 7 7 6 8 9 9 9 8 7 5 4 5 6 7 9 11 13 14 10 7 8
23 22 20 19 19 18 18 18 17 17 15 14 14 12 11 12 11 10 8 7 7 7 9 11 11 8 6 4 5 8 9 9 8 9 10 11 11 10 7 6 7 7 6 6 6 6 7 8 8 9 9 6 3 3 3 5 6 6 11 16 10 7 11
21 21 20 19 18 16 17 16 15 15 15 14 14 12 11 11 11 10 8 7 7 6 8 10 9 7 6 4 5 7 8 7 6 6 7 9 10 9 7 5 6 6 6 7 8 7 7 6 6 7 9 9 6 4 2 4 4 2 8 15 10 9 14
19 19 19 19 16 14 16 17 14 13 14 14 14 13 12 11 11 10 9 8 7 6 7 8 7 6 6 6 5 6 7 6 6 5 5 6 7 7 7 5 4 5 7 7 6 7 7 7 6 5 6 7 8 6 3 3 3 4 9 15 13 13 18
17 16 15 17 17 14 14 16 15 13 13 13 14 13 12 11 11 11 10 9 9 8 7 7 7 7 7 7 6 6 7 6 5 6 6 4 4 7 8 4 3 5 7 6 4 5 5 6 8 7 6 6 6 5 5 3 2 5 11 15 15 16 18
17 17 14 15 18 17 14 14 14 13 12 12 12 13 12 11 11 11 11 11 10 10 9 8 9 8 8 8 8 8 8 7 6 7 7 4 3 4 6 5 2 3 5 4 4 4 4 3 5 7 6 5 4 5 7 5 2 7 14 15 15 17 18
15 16 14 13 17 19 16 14 12 12 12 13 12 12 12 12 11 11 12 12 12 11 11 10 10 10 10 9 9 9 9 8 8 9 8 6 5 4 4 5 3 1 2 4 4 3 3 2 1 5 6 5 5 7 8 8 5 8 14 16 16 18 17
13 13 12 11 13 16 15 14 12 10 11 12 13 13 13 12 12 12 12 13 13 13 14 13 12 12 12 11 10 10 11 10 10 11 11 9 8 7 5 5 5 4 3 2 1 1 2 2 1 4 6 5 6 7 8 10 10 10 14 18 18 18 17
9 10 12 9 8 12 14 15 15 13 11 9 10 11 12 12 12 13 13 14 14 15 16 15 14 14 14 13 13 12 12 12 12 12 13 13 11 10 9 7 6 6 5 2 1 0 1 3 2 4 5 5 6 7 8 9 10 10 13 17 18 18 19
10 10 13 13 12 12 14 16 17 17 15 12 11 10 9 9 10 13 14 15 16 17 18 18 17 16 16 16 16 15 15 14 13 12 12 13 13 12 13 11 8 7 6 4 2 1 2 3 4 4 5 6 7 9 10 10 11 12 13 16 19 20 21
16 14 15 18 17 15 14 15 15 15 16 15 14 12 10 8 7 8 11 14 16 17 17 17 19 20 19 19 19 18 18 17 16 14 13 13 13 13 14 14 10 8 7 5 5 4 3 4 6 6 6 7 8 9 11 11 12 13 14 17 20 22 21
16 15 15 17 18 17 16 15 14 13 13 14 14 13 13 14 13 10 10 12 14 15 13 12 16 20 21 21 19 19 20 20 20 18 15 14 14 12 13 13 11 8 8 7 6 5 5 5 7 7 6 8 10 11 12 12 13 14 16 18 21 23 24
13 14 14 15 16 16 16 16 16 16 15 15 15 15 16 18 19 19 18 17 17 17 15 14 15 16 18 19 19 20 22 23 22 20 18 17 15 13 12 13 12 10 8 7 7 6 6 7 7 7 7 11 14 14 14 15 15 15 16 18 19 21 23
7 9 11 13 14 15 15 15 16 16 16 16 16 16 18 19 20 20 20 20 20 19 18 19 18 16 15 17 20 20 22 24 24 21 19 19 17 15 15 14 11 10 9 9 8 8 8 8 8 8 11 14 14 13 14 15 15 15 16 17 19 19 20
4 3 5 7 9 10 11 11 12 13 14 15 15 16 17 18 18 19 19 19 20 20 19 20 21 19 17 18 20 19 18 21 25 24 21 20 18 17 16 14 12 11 10 10 10 9 9 9 10 12 15 15 14 13 14 15 15 16 16 17 19 20 20
5 4 4 4 5 8 10 10 10 10 10 11 12 13 14 15 16 17 18 19 20 21 20 21 21 22 22 20 21 20 17 18 24 27 24 22 20 17 15 14 13 12 11 11 11 10 10 11 12 14 15 14 14 13 13 14 14 15 16 17 18 19 18
3 3 4 4 5 6 8 9 10 11 11 12 12 12 11 12 13 14 15 17 19 20 21 20 20 21 22 20 18 20 19 19 22 26 24 22 21 18 16 14 12 11 10 11 11 11 11 12 13 14 14 13 13 13 13 14 15 16 16 17 18 18 18
1 3 3 3 4 4 5 6 7 8 10 12 14 15 15 13 11 12 12 13 15 16 18 19 19 20 20 17 15 16 17 17 21 24 23 22 21 18 16 14 12 11 10 10 9 9 9 10 11 12 12 12 12 12 12 13 15 16 18 19 20 21 20
4 5 5 5 5 6 6 7 7 8 7 7 8 11 15 15 12 11 11 11 11 12 14 17 19 20 18 15 15 14 12 14 21 23 21 20 19 17 16 15 13 12 11 9 8 7 8 8 9 10 9 9 9 9 10 11 12 15 17 19 21 23 23
4 5 6 6 7 8 8 9 9 10 10 10 9 8 8 12 14 12 11 10 10 11 14 16 17 18 17 15 15 14 11 15 19 19 18 18 17 15 15 14 12 10 9 9 9 9 9 9 10 11 10 10 11 12 13 14 15 15 16 17 21 23 23
4 4 5 7 8 8 9 10 10 11 11 11 11 11 9 8 11 12 12 12 12 13 15 14 14 14 12 11 12 11 13 16 17 15 15 14 13 11 10 8 7 7 8 9 9 9 9 10 11 13 13 14 15 16 17 17 16 15 15 16 19 20 20
4 4 4 6 7 7 8 9 11 12 12 11 11 11 10 9 8 12 13 14 14 14 12 10 9 8 8 10 12 13 14 16 15 13 12 11 9 6 4 4 5 7 8 8 8 9 9 10 11 13 13 14 14 14 14 14 13 12 13 15 17 17 16
5 4 5 6 7 7 8 8 9 9 10 11 11 10 9 8 6 10 13 14 14 12 9 8 7 8 9 11 13 13 14 14 13 11 8 6 4 1 3 4 5 7 8 9 8 9 9 10 11 11 11 11 11 11 12 12 13 14 15 17 19 19 20
7 7 7 7 7 6 7 7 7 7 8 10 9 8 7 6 6 8 10 11 11 10 10 11 11 11 12 12 13 13 13 12 10 8 5 4 3 1 3 4 5 6 8 7 7 8 9 9 9 8 9 11 12 14 16 16 17 18 18 19 21 22 24
8 9 9 10 10 10 9 9 9 10 11 9 7 6 7 7 7 7 8 9 10 10 11 14 14 14 14 13 13 13 13 11 10 9 8 7 6 4 3 3 3 3 4 4 5 6 6 6 8 10 12 14 16 18 18 17 17 18 18 18 19 20 20
9 9 8 9 8 8 8 7 7 9 9 7 6 6 7 7 8 9 9 10 11 11 12 15 15 14 13 12 11 11 11 10 10 9 9 8 7 4 0 2 2 2 1 2 3 4 6 9 12 14 15 15 15 16 15 15 15 16 18 19 20 20 19
9 7 6 5 5 6 7 8 9 10 8 7 7 7 8 8 9 10 11 11 12 12 12 14 14 12 11 10 9 8 8 8 9 8 7 6 5 3 2 2 2 1 0 2 4 8 11 14 15 15 14 13 13 14 15 16 17 18 20 22 22 22 20
10 9 9 9 11 12 13 13 14 13 8 8 9 8 9 10 10 12 13 12 13 14 13 12 11 11 9 8 8 8 8 7 7 6 5 4 4 3 3 2 3 2 2 5 9 13 14 15 13 12 11 12 13 14 15 17 19 20 21 22 22 22 21
11 10 11 11 10 12 13 13 15 14 11 11 11 10 11 11 12 14 15 15 14 14 12 11 9 9 9 8 8 7 6 5 4 3 3 4 4 3 2 1 1 3 7 10 13 13 11 10 10 10 10 11 12 14 15 17 18 19 21 21 21 21 20
10 8 6 5 5 6 6 7 9 12 14 15 14 14 15 14 15 16 17 17 16 14 12 11 10 9 9 8 7 6 6 6 6 6 6 6 4 2 1 4 6 9 11 11 10 8 7 7 8 9 10 10 11 13 15 18 19 19 19 19 20 20 20

ECMWFFLT1_925_spd_042.txt.gz
Wind_Speed
20 19 18 17 15 13 11 9 8 7 6 7 8 9 10 10 10 10 9 9 10 9 8 8 8 8 8 9 8 8 8 8 6 6 7 5 4 3 3 3 1 1 2 3 2 2 2 0 3 4 5 4 0 3 5 5 4 4 6 6 4 3 5
21 20 20 18 15 13 12 10 9 8 8 9 10 11 12 12 11 11 11 12 13 11 10 10 9 9 9 9 9 9 9 10 9 9 9 7 5 4 3 2 2 3 5 5 5 5 4 3 1 3 5 6 4 2 1 2 3 3 5 7 7 6 3
24 23 21 19 17 15 14 13 11 10 10 11 11 12 14 13 12 11 12 13 14 14 13 12 10 10 9 10 10 10 10 11 10 10 10 10 8 8 7 5 5 6 7 7 8 7 6 5 3 2 4 5 5 5 5 4 3 2 3 3 6 7 6
27 26 23 21 19 18 17 16 13 12 12 12 11 12 13 13 12 10 11 12 12 12 12 10 10 9 9 9 10 10 10 10 10 10 11 11 12 13 12 11 10 10 8 7 8 8 7 5 4 1 4 5 4 5 7 7 6 5 5 4 4 4 4
29 27 26 25 23 21 19 17 16 15 13 12 12 13 13 12 12 11 10 10 10 10 10 9 8 8 8 8 9 10 10 10 10 11 12 12 12 13 13 12 12 11 10 10 9 9 8 6 5 2 4 5 3 4 7 8 9 9 8 6 6 7 7
28 27 27 27 25 22 20 20 19 18 16 14 13 14 14 13 12 11 10 9 9 8 8 8 8 7 7 9 9 9 9 10 9 10 11 11 11 12 12 11 11 11 12 11 9 10 9 8 8 5 4 4 3 4 6 9 11 13 13 13 13 12 11
26 26 27 27 26 22 21 22 21 19 18 16 15 15 15 14 12 11 11 10 9 8 7 7 7 7 7 8 9 9 8 8 8 9 9 9 10 10 9 9 11 12 11 10 9 9 9 9 10 7 5 3 4 5 6 9 12 13 13 14 15 14 14
25 25 27 26 25 23 22 22 20 19 18 16 16 16 15 14 12 11 11 11 11 9 7 6 5 5 5 6 8 8 9 8 8 9 8 8 9 8 7 7 8 9 8 8 8 9 10 11 10 10 8 5 3 5 6 7 10 13 13 10 11 14 15
25 25 26 25 23 23 21 20 18 17 16 15 16 16 16 14 12 11 10 11 11 10 8 6 5 4 3 4 6 7 8 8 7 9 8 7 7 7 6 6 6 7 8 7 7 8 9 9 10 10 11 9 5 3 4 6 5 7 14 14 9 11 15
24 24 24 23 22 23 21 18 17 16 15 15 14 15 15 14 11 10 9 9 10 11 10 8 6 4 1 2 4 5 6 6 7 7 7 6 6 5 6 6 6 8 9 9 8 7 7 7 8 8 10 10 8 4 2 4 3 2 9 15 11 11 16
24 22 22 21 21 23 22 20 19 17 17 15 14 14 14 13 11 9 8 8 9 10 12 10 7 4 3 2 2 2 3 4 3 4 6 6 5 4 5 6 6 7 9 9 9 8 9 9 9 8 9 9 10 7 4 2 2 2 7 13 12 14 18
24 21 20 20 21 22 23 22 21 20 18 17 16 16 15 14 13 11 10 8 8 9 10 11 9 6 5 4 4 3 3 3 2 2 4 3 3 4 3 5 5 6 6 7 6 7 8 9 9 8 8 8 10 10 8 4 1 3 8 12 14 16 17
24 21 19 21 23 22 22 23 22 21 20 19 18 17 16 15 14 12 11 10 9 9 9 10 10 9 8 7 7 6 5 5 5 4 3 2 2 4 3 4 5 4 3 4 4 5 5 6 7 7 7 8 9 10 11 8 3 7 10 12 15 17 17
22 21 20 23 24 22 22 23 21 20 21 21 20 19 17 16 14 13 12 11 10 11 10 10 10 10 10 10 9 9 8 8 7 6 5 4 3 3 3 3 2 2 2 3 2 3 4 4 4 6 7 7 9 11 11 11 8 9 13 14 16 17 18
20 20 22 25 25 22 22 23 22 19 18 19 20 21 19 17 16 14 13 13 12 12 11 11 11 12 12 12 12 12 11 11 10 9 9 8 6 4 4 4 3 1 1 1 1 2 2 3 4 5 7 8 9 10 11 12 11 8 13 18 19 19 20
19 19 19 20 20 19 17 19 20 17 17 21 23 23 21 19 18 17 16 15 14 14 13 13 13 14 14 14 14 14 13 13 12 12 12 12 10 8 7 6 6 5 4 1 2 1 1 3 4 5 7 8 9 10 10 12 12 9 11 17 20 20 21
21 20 18 17 17 16 13 13 16 15 16 22 24 24 23 21 20 19 18 17 17 17 16 16 16 17 16 16 15 15 15 15 15 15 14 14 13 12 10 9 8 7 6 3 2 2 2 3 4 5 7 8 9 11 12 12 12 11 12 15 19 21 22
19 20 19 18 17 18 16 15 17 16 14 15 19 20 19 19 20 21 21 21 20 20 19 19 19 19 19 18 18 17 17 17 17 16 16 15 15 15 14 12 10 9 8 6 5 4 4 4 5 6 7 8 9 13 15 14 13 13 14 16 19 21 22
16 16 16 15 14 17 19 19 18 17 14 13 14 15 14 14 16 18 19 20 21 22 22 23 23 22 22 22 21 19 19 19 18 18 18 17 16 16 16 14 13 12 10 8 7 7 6 6 6 6 7 7 9 13 16 15 14 15 15 16 17 20 22
15 15 14 15 14 15 19 19 17 16 16 16 15 14 15 15 15 16 16 15 16 17 19 21 21 21 23 24 24 23 22 21 21 20 20 19 18 17 17 16 16 15 14 11 10 9 8 7 6 7 6 7 10 14 16 15 14 14 15 16 17 18 20
10 11 12 13 14 15 17 18 18 16 16 17 16 15 16 16 17 17 17 16 16 16 16 17 17 18 19 20 23 25 25 24 23 22 22 22 21 19 18 18 18 18 16 14 12 11 9 8 7 6 6 7 11 13 14 13 14 14 15 16 16 17 20
6 7 8 9 11 12 13 14 14 14 14 15 15 15 15 16 17 17 16 17 17 17 18 18 18 18 18 18 20 23 25 24 24 23 23 24 23 21 20 19 19 19 18 16 14 12 10 8 8 7 7 9 11 12 11 11 12 13 14 16 17 18 19
7 7 6 6 6 7 7 8 8 9 10 11 12 13 14 14 15 14 14 14 15 16 17 17 18 18 18 17 18 19 21 22 22 21 22 25 26 23 22 22 21 20 19 18 15 12 10 9 9 9 9 10 10 9 9 9 11 11 12 14 15 16 18
9 9 8 7 6 6 7 7 9 9 10 11 12 13 14 14 14 13 11 11 12 13 14 14 15 15 15 15 16 16 18 19 19 18 19 22 26 25 23 23 23 22 20 17 14 11 9 9 9 9 10 11 10 9 8 9 10 10 10 11 13 14 15
4 3 3 2 1 1 1 2 3 4 5 6 7 9 10 12 13 14 14 13 11 9 9 10 10 11 11 12 12 13 15 17 19 19 17 19 24 26 25 24 22 20 17 14 11 10 9 9 9 10 11 11 10 9 8 8 9 9 10 11 13 15 15
2 3 3 3 3 4 4 4 4 4 4 4 5 5 5 6 9 12 15 15 11 8 8 8 8 9 9 8 8 9 11 13 16 18 17 17 22 26 25 23 21 17 14 11 10 10 9 9 10 10 10 9 9 7 7 7 8 9 11 11 13 14 15
1 2 2 2 3 3 4 4 5 5 6 6 6 6 6 6 6 7 11 13 12 9 8 8 8 9 8 6 6 8 10 11 13 15 15 16 20 23 22 20 18 14 12 10 9 8 8 8 9 9 8 7 7 6 7 8 9 10 11 11 12 14 15
2 3 4 4 4 4 4 4 4 5 7 7 7 7 7 7 6 6 9 12 12 11 10 9 9 9 7 6 5 6 8 10 12 13 13 15 17 18 17 15 13 10 8 7 6 7 7 7 8 8 7 7 8 8 9 9 10 10 11 12 13 14 15
2 3 4 4 4 4 4 5 5 6 6 6 6 7 8 8 8 8 8 11 12 12 11 10 8 8 6 4 3 4 6 8 10 12 13 14 15 15 13 10 8 7 6 6 6 7 8 9 9 8 8 8 9 9 9 9 10 10 12 14 15 16 18
4 3 3 3 3 3 4 4 4 4 4 4 5 6 7 7 8 8 8 10 12 12 10 7 5 5 4 2 3 7 9 11 13 13 13 12 12 12 11 9 8 7 7 6 7 8 9 9 8 7 7 8 9 10 10 11 12 13 14 16 17 18 19
7 6 6 5 5 5 4 4 5 5 5 6 6 6 7 7 7 6 7 8 10 10 8 5 3 2 2 3 6 9 12 13 14 13 12 11 10 10 10 9 8 8 7 6 7 8 7 7 6 5 6 8 10 12 13 13 14 14 13 13 13 13 14
10 9 9 8 6 5 3 3 4 5 5 6 6 6 6 6 5 5 5 7 8 8 7 5 4 5 6 7 8 10 11 12 13 13 12 11 10 8 8 7 6 6 6 7 7 6 4 4 5 6 8 10 11 12 12 11 12 12 12 13 13 13 13
11 10 9 7 4 2 1 2 4 5 5 5 6 6 6 5 5 5 6 7 8 8 7 7 7 7 8 9 9 9 10 11 12 13 11 10 10 9 7 6 6 5 5 5 3 2 3 5 7 9 9 9 9 8 9 9 10 11 13 14 14 15 15
10 10 8 6 5 4 4 6 7 8 6 5 5 6 6 5 5 6 7 8 9 9 8 9 9 9 8 8 9 9 8 9 10 11 10 8 8 8 6 6 6 5 4 2 1 5 7 8 8 7 6 6 6 6 8 9 10 11 13 15 15 16 16
10 9 7 7 7 8 8 8 10 8 5 4 5 6 7 7 7 8 9 9 9 10 10 9 9 9 8 6 6 7 7 8 9 10 10 8 8 7 7 6 5 3 1 3 5 7 6 6 5 5 5 5 5 6 7 9 11 13 14 15 17 17 17
10 8 8 8 8 8 9 9 9 7 5 5 6 7 9 9 10 10 11 11 11 11 10 9 8 7 6 6 5 6 7 8 9 9 10 9 8 8 7 5 3 0 3 4 4 3 3 3 3 4 4 4 5 6 8 10 12 13 14 16 17 18 18
8 8 7 7 7 8 8 8 8 7 5 6 8 10 11 11 12 13 13 14 14 13 11 10 9 7 7 7 7 7 7 8 8 8 9 8 8 6 5 2 0 1 1 1 1 1 1 2 3 4 4 4 6 9 11 12 13 13 14 16 17 18 18

ECMWFFLT1_925_spd_045.txt.gz
Wind_Speed
16 15 15 14 14 13 12 11 9 8 8 7 8 9 9 9 9 9 9 9 9 7 6 5 5 5 5 5 6 6 6 6 5 7 8 6 6 6 3 2 4 5 5 4 3 3 2 1 2 3 4 4 3 2 2 3 3 4 5 4 7 8 6
14 15 16 14 13 13 11 9 8 7 7 7 8 9 10 9 8 8 9 9 9 7 6 6 6 6 6 5 6 6 6 8 8 8 8 7 7 7 5 5 6 7 8 8 7 6 4 3 0 2 3 6 7 7 6 3 2 3 4 5 4 4 4
15 17 17 15 13 12 11 10 9 9 9 9 10 10 10 9 8 9 10 10 9 8 7 7 7 7 7 7 7 7 6 8 8 8 9 8 8 8 8 7 8 8 8 7 7 7 6 5 3 0 3 5 6 10 14 10 4 2 3 6 7 7 6
18 19 18 16 15 13 13 12 11 11 12 12 12 12 10 9 8 9 10 11 10 9 8 8 7 7 7 8 8 7 7 7 8 8 9 10 10 10 10 9 9 9 8 7 7 8 6 5 3 1 3 5 4 9 15 16 14 13 13 15 15 14 13
21 21 20 18 17 15 15 14 13 13 14 13 12 11 10 9 8 9 9 10 10 9 9 9 8 7 7 7 7 7 8 8 9 9 10 11 10 11 11 10 10 10 10 10 8 9 8 6 5 3 3 5 4 7 13 18 21 22 22 22 21 20 19
22 22 20 19 18 17 16 16 15 15 15 14 14 12 11 9 7 8 8 8 8 8 9 9 9 8 6 6 6 7 8 8 8 9 10 11 10 10 10 10 10 10 10 10 8 8 8 7 7 5 4 5 5 6 10 13 14 16 18 20 21 21 19
24 22 21 20 19 17 17 16 15 15 14 14 14 13 11 9 7 7 7 7 6 6 7 8 8 8 7 7 6 6 7 7 7 8 9 9 9 10 9 10 11 11 10 9 8 9 9 9 10 7 4 4 6 6 7 9 11 11 11 13 18 20 19
24 22 20 20 19 18 17 16 15 14 13 12 13 13 11 10 8 7 6 5 5 4 5 6 7 7 6 7 7 7 6 6 6 7 8 8 9 9 8 9 9 10 10 9 10 11 11 11 12 11 7 4 4 5 5 7 11 13 11 8 13 20 20
24 22 21 21 20 19 17 16 15 13 12 11 11 12 11 10 9 7 7 6 5 3 3 3 4 6 5 5 7 8 8 6 6 7 7 8 9 9 8 8 9 10 10 10 10 11 11 11 11 13 13 8 4 2 3 5 5 9 14 12 12 18 21
25 24 23 22 21 19 17 16 15 13 12 11 11 11 11 9 8 7 7 7 7 6 4 3 3 3 3 3 5 7 8 7 6 7 7 7 9 9 8 9 11 12 11 10 11 11 11 11 11 12 15 14 10 5 2 4 3 4 12 15 14 17 20
27 25 23 23 21 19 17 16 15 14 12 11 11 10 10 9 7 6 6 7 8 8 7 6 5 3 1 2 3 4 6 6 5 5 5 6 7 8 9 10 11 12 11 10 11 11 11 12 11 12 14 14 15 10 5 2 2 5 10 13 16 18 19
29 26 23 23 22 20 18 16 16 14 12 11 11 9 9 8 7 7 6 7 8 9 9 8 6 5 3 2 2 2 3 4 4 4 4 4 4 5 7 9 9 9 9 8 9 9 11 12 12 13 13 13 15 14 10 6 2 5 9 11 16 18 19
30 25 23 22 22 21 20 18 16 15 13 12 11 10 9 8 8 8 7 7 8 10 11 10 9 7 5 5 4 3 3 3 2 3 4 3 3 3 5 7 7 7 6 6 7 7 8 9 10 11 12 12 14 14 13 11 5 5 8 11 16 18 19
29 25 22 22 22 23 22 20 18 16 15 14 13 11 10 9 10 10 10 9 9 9 10 10 10 9 8 7 7 6 5 4 3 3 3 3 3 3 4 5 5 5 5 4 5 5 6 6 7 8 10 12 14 15 15 14 10 8 10 13 16 18 20
26 24 23 22 23 23 23 22 21 20 19 18 16 15 12 12 12 12 12 13 12 11 11 11 10 10 10 9 9 9 9 8 7 6 5 4 3 4 4 4 3 3 3 3 3 3 3 4 5 6 9 11 13 15 15 15 13 10 12 17 18 19 21
22 23 23 23 21 20 20 20 19 19 20 19 19 17 15 15 15 16 16 16 16 15 13 12 12 12 12 11 11 11 11 11 11 10 9 8 7 6 6 5 5 4 3 3 1 1 1 2 4 5 7 8 10 13 14 15 14 11 12 16 18 20 21
23 25 23 22 20 18 17 16 14 15 16 16 16 16 16 18 20 20 19 19 20 20 17 15 15 15 14 13 13 13 13 13 13 13 12 11 10 10 9 8 7 6 6 5 3 1 2 0 2 3 5 5 7 9 12 13 13 11 11 13 17 18 19
21 23 22 20 18 16 15 14 14 15 17 16 15 15 17 19 21 22 21 22 25 26 22 19 19 19 17 17 16 15 15 15 15 15 14 14 13 13 13 11 10 9 9 8 6 5 4 3 1 1 2 3 4 6 9 11 12 12 11 13 15 16 18
16 18 18 16 13 12 12 12 12 15 17 17 17 17 18 19 21 22 22 24 27 29 28 25 23 22 21 20 20 19 18 18 18 18 17 16 16 15 15 15 13 12 12 11 9 8 7 6 4 3 1 1 2 4 7 9 10 11 11 11 12 15 18
10 11 12 12 11 11 12 13 12 13 14 15 15 16 16 16 17 18 19 21 24 28 28 26 24 24 24 24 24 23 22 22 21 21 20 19 18 18 17 17 16 15 14 14 13 11 10 9 6 4 3 2 3 5 6 7 8 9 9 10 11 14 16
8 8 10 10 10 11 12 13 14 14 14 14 15 15 16 16 15 17 20 21 22 23 23 21 21 21 22 23 24 24 24 24 25 25 23 22 21 20 19 18 18 17 17 16 16 14 13 11 8 5 4 4 5 6 7 7 7 8 8 9 10 12 14
8 10 12 12 14 15 15 16 19 20 18 18 18 17 17 18 19 21 22 23 24 24 22 20 19 20 21 22 22 22 23 24 25 27 26 25 23 23 22 21 20 19 18 18 18 16 14 11 8 6 5 4 5 6 7 6 7 7 8 9 10 11 13
9 11 11 11 14 16 17 18 19 18 16 14 14 14 15 16 19 22 22 22 23 21 18 18 18 18 19 19 20 20 21 22 23 25 26 26 25 25 24 23 23 21 20 20 19 17 13 10 8 6 5 4 5 6 6 6 6 7 8 9 9 10 12
11 11 10 9 9 9 9 9 8 8 7 7 8 9 12 15 18 21 21 19 17 14 12 14 15 15 15 16 17 17 18 19 20 21 23 23 24 24 24 24 24 22 22 22 20 16 13 10 8 6 5 5 6 7 6 6 5 5 6 8 9 10 11
5 5 4 3 2 2 3 3 2 2 1 1 1 2 5 7 9 11 11 11 11 11 11 11 11 10 10 11 13 14 15 16 17 18 19 20 20 20 21 22 23 23 23 21 19 15 13 10 8 6 5 6 6 7 6 5 5 5 6 8 10 11 10
5 5 5 5 5 5 5 6 6 6 5 5 3 2 1 2 3 4 5 6 8 9 9 10 9 7 6 6 7 9 10 11 14 16 17 18 18 17 18 19 20 20 19 18 16 14 12 9 7 5 5 5 6 7 7 6 6 7 8 9 10 11 11
5 4 4 4 4 4 4 5 5 5 4 4 3 2 2 3 4 5 6 6 7 8 8 9 8 6 5 5 5 6 7 8 10 13 15 16 16 16 16 16 17 18 17 15 13 11 9 7 5 4 5 5 6 7 7 8 9 9 9 10 10 11 12
2 1 1 1 2 2 3 3 3 2 2 2 2 3 3 5 6 7 7 7 8 8 8 8 8 6 4 4 4 5 6 8 10 11 11 11 10 10 12 14 16 17 16 14 12 10 8 7 5 5 6 6 6 6 8 9 10 11 11 11 12 13 14
3 2 1 1 1 1 1 1 1 2 2 2 2 3 4 5 6 7 7 8 9 8 8 8 7 6 4 3 4 4 5 6 6 5 4 3 4 6 9 13 15 15 14 12 10 8 7 6 5 6 6 6 6 7 8 10 11 12 13 13 13 14 14
5 5 4 3 2 2 1 1 1 1 2 3 3 4 5 6 6 7 7 7 8 8 8 7 6 5 3 2 2 3 3 4 4 5 7 9 10 11 11 11 12 11 9 7 6 5 5 5 5 6 6 7 8 8 9 11 11 12 12 12 12 12 13
4 4 4 4 3 3 2 2 2 3 3 4 5 6 6 7 7 8 8 8 7 7 7 6 5 4 2 1 1 3 4 5 7 9 11 12 11 10 8 7 7 6 6 5 4 4 4 5 5 5 6 8 9 10 10 11 11 11 11 11 11 11 12
3 3 4 4 3 2 2 2 3 3 4 4 5 5 5 6 6 7 8 9 8 7 6 5 4 3 2 3 4 5 7 8 10 11 11 11 10 9 8 6 5 5 5 4 4 3 3 4 4 5 6 8 8 9 9 9 10 10 11 11 12 12 12
1 3 4 4 2 1 1 2 3 4 4 5 5 5 5 5 6 7 7 7 7 6 5 4 4 3 4 5 7 8 9 9 9 10 10 10 10 9 8 7 6 5 5 4 4 3 3 4 5 5 6 7 6 7 7 8 8 9 10 12 12 13 14
1 0 1 1 1 2 3 4 5 5 5 6 6 6 6 6 6 7 7 7 7 6 5 4 4 4 6 7 9 10 10 10 10 10 10 9 8 8 8 7 6 5 4 4 3 3 4 4 4 4 4 5 5 6 7 7 8 9 11 12 13 14 15
5 4 3 3 4 5 5 5 6 6 6 6 6 6 6 6 6 6 6 7 7 7 6 5 5 6 7 7 7 7 7 8 9 10 10 10 9 9 8 8 7 5 4 3 2 2 1 1 2 2 3 4 5 5 6 8 9 11 12 13 14 15 16
7 6 6 6 6 6 6 5 6 6 6 6 6 6 6 6 6 6 7 8 8 8 8 8 7 7 7 7 6 6 6 7 8 9 9 10 11 11 10 8 7 5 4 2 1 1 1 0 2 2 3 4 4 5 8 9 11 12 13 14 15 17 17
9 9 9 8 7 6 6 6 6 7 7 6 7 7 7 7 7 8 8 9 10 10 10 9 9 8 7 7 6 5 6 7 8 9 8 9 10 10 9 8 6 4 2 1 1 1 1 1 1 1 1 3 5 7 9 11 12 13 14 15 16 17 18

ECMWFFLT1_925_spd_048.txt.gz
Wind_Speed
14 13 12 10 10 10 11 10 9 8 8 7 6 6 6 6 5 4 4 4 4 3 1 2 3 4 4 4 5 5 4 3 1 3 5 4 4 3 2 1 2 4 6 5 5 4 3 2 2 5 9 10 8 6 3 3 6 5 5 5 4 4 5
13 13 13 12 12 12 11 10 9 8 7 7 7 7 7 6 5 4 5 5 4 2 2 2 3 3 3 4 5 5 5 6 5 3 4 4 4 5 4 3 4 5 5 5 5 5 5 3 1 2 7 11 13 13 11 9 11 9 7 8 7 7 5
13 13 14 13 13 12 11 9 8 7 7 7 8 9 8 7 5 4 4 4 3 2 3 3 4 4 4 4 5 6 6 6 6 5 5 6 5 5 6 6 6 6 6 7 8 9 8 7 4 2 5 9 11 16 20 20 20 18 16 14 14 14 12
15 15 15 15 14 12 11 10 9 8 8 9 10 9 8 8 7 7 6 6 5 5 5 5 5 5 5 5 5 5 5 6 6 7 8 9 9 9 9 8 8 9 9 8 8 8 7 6 5 3 6 11 12 16 22 25 25 23 21 21 20 20 19
15 16 17 17 15 13 12 11 11 11 11 12 11 9 8 8 8 9 9 9 9 8 7 6 5 5 5 5 5 6 6 7 7 8 10 10 9 10 11 11 11 12 12 11 10 9 8 7 7 5 5 9 10 11 15 20 24 25 24 23 22 22 21
16 16 17 17 16 14 13 13 13 13 13 13 11 9 8 7 7 8 9 9 9 9 9 8 7 6 5 6 7 8 9 9 9 8 10 10 10 10 11 12 12 13 14 13 11 11 10 9 9 7 5 7 7 7 9 11 15 19 24 24 21 20 20
16 15 16 17 16 14 13 12 12 13 13 12 10 9 7 6 6 7 7 8 8 9 9 9 8 6 6 6 7 9 9 9 8 8 9 10 10 10 10 11 12 13 14 13 13 13 13 12 10 7 7 8 8 8 8 10 11 12 16 21 22 20 19
16 15 15 15 14 14 13 11 11 11 11 10 9 8 7 6 5 5 5 5 6 7 8 8 8 6 6 6 7 8 9 8 8 9 10 10 10 9 9 10 12 13 13 12 13 14 14 15 13 9 9 7 6 5 6 10 15 14 12 15 20 21 19
17 15 15 15 13 13 12 10 9 10 10 10 9 8 6 5 3 3 2 2 3 4 4 5 7 6 6 6 7 8 8 8 8 9 10 10 10 10 9 10 12 13 13 12 13 13 14 15 16 14 10 8 6 4 2 4 8 12 13 14 17 20 20
17 15 15 14 13 12 11 9 9 9 9 9 8 8 7 5 4 2 1 0 0 1 2 2 4 5 5 6 6 7 8 7 7 9 9 10 11 10 11 12 12 13 12 12 13 13 13 14 15 17 16 11 8 5 2 2 2 5 12 15 16 18 19
17 16 15 14 13 13 12 10 9 9 8 8 7 7 7 7 5 3 1 2 3 2 2 1 1 3 4 4 5 6 6 6 6 7 8 9 10 10 11 12 12 12 11 12 14 14 13 14 14 16 17 16 14 10 5 3 1 4 9 13 15 17 17
18 16 15 15 14 13 12 10 9 9 8 7 7 7 7 7 6 4 3 2 3 4 4 3 2 2 2 2 3 3 4 4 4 6 6 7 8 9 10 10 10 10 9 10 11 12 11 12 13 14 15 15 16 15 11 7 3 3 7 10 13 15 16
19 18 17 16 15 14 12 10 9 9 8 7 7 6 6 6 5 4 3 3 3 4 5 5 5 4 3 3 2 1 1 2 3 3 4 5 6 6 8 8 8 8 7 7 8 8 9 9 10 12 13 14 16 15 14 12 7 4 6 9 12 14 15
21 20 19 18 17 16 14 11 10 9 9 9 8 7 7 7 6 5 5 4 4 5 6 7 7 7 6 5 4 3 2 1 1 1 2 3 4 4 5 6 6 6 5 4 5 5 6 6 7 9 10 11 14 13 13 13 10 6 5 8 10 13 14
21 20 19 18 17 17 16 14 12 11 10 9 8 8 8 8 8 8 8 8 7 7 7 8 9 10 9 8 8 7 6 5 4 4 3 2 3 4 4 4 4 5 4 3 3 3 4 4 4 5 7 7 10 12 12 12 10 8 7 8 10 12 14
20 20 19 18 17 17 17 16 14 13 13 12 10 10 9 9 10 11 11 11 11 10 10 11 11 12 12 12 11 10 9 9 8 8 7 6 5 5 5 4 4 4 4 3 3 3 3 3 2 3 5 5 7 9 11 11 11 10 9 9 10 12 14
16 18 19 19 17 17 18 17 16 16 16 14 11 9 10 10 10 11 14 14 14 13 13 14 14 14 14 15 14 14 14 13 12 11 10 9 8 7 7 7 6 6 5 5 4 3 3 3 1 2 3 4 5 7 9 11 11 11 10 10 10 12 14
15 17 19 19 18 17 17 17 16 16 15 13 11 10 12 14 14 13 14 15 16 17 17 18 17 17 17 18 17 17 18 18 16 14 13 12 12 11 10 9 9 8 8 8 7 6 5 4 3 1 2 3 4 6 8 9 10 10 10 10 10 10 13
15 18 19 18 17 17 16 15 15 14 13 12 12 12 13 14 15 14 14 14 16 18 19 20 20 20 20 21 20 20 21 22 21 17 15 15 14 14 13 12 11 11 11 11 10 9 8 6 5 3 1 1 2 4 6 8 9 9 9 10 9 10 12
15 17 16 16 16 14 11 11 11 11 11 11 11 11 11 11 11 11 12 13 15 17 18 19 19 20 20 20 21 20 21 24 24 21 18 17 16 16 16 15 14 14 14 14 13 12 11 9 7 5 4 2 1 2 5 6 7 7 8 8 8 10 11
15 15 15 14 12 10 7 7 8 8 8 9 9 9 9 9 10 11 12 13 15 16 17 18 18 19 18 17 18 19 19 22 23 20 18 19 19 19 18 17 17 17 17 16 14 13 13 12 9 7 6 4 3 1 3 5 5 6 7 7 7 8 10
14 14 13 10 8 7 7 9 10 10 9 9 10 9 10 11 12 14 15 15 16 17 18 19 19 19 18 17 18 18 18 18 19 17 18 19 20 20 20 19 19 19 19 18 16 15 15 15 12 10 8 6 5 4 4 4 5 6 6 7 8 8 10
12 11 10 8 5 4 6 8 9 9 9 9 9 8 9 10 11 12 13 13 13 14 15 15 16 16 17 17 17 18 17 17 17 17 17 18 19 19 19 19 19 20 19 19 19 19 17 16 13 9 7 6 5 4 4 4 5 5 6 7 8 9 11
11 10 9 7 5 4 4 4 4 4 5 4 4 4 4 5 7 8 10 10 10 10 10 10 9 10 11 12 14 16 16 15 15 15 16 16 16 16 16 16 17 18 19 19 21 21 17 15 13 9 7 6 5 4 4 3 3 4 5 6 7 8 9
10 10 8 7 6 5 5 5 6 6 5 4 3 2 1 1 3 4 5 6 7 8 9 8 6 5 6 7 8 10 11 12 12 13 14 14 14 14 14 13 14 15 16 18 20 19 16 15 13 11 9 7 5 4 3 3 4 4 5 5 6 7 7
11 12 11 11 10 10 9 9 9 9 8 7 6 5 4 3 3 4 4 5 5 5 5 5 3 3 4 5 4 4 6 7 9 10 11 12 12 13 13 13 13 14 15 15 16 16 17 17 15 12 9 6 4 3 3 5 5 5 5 5 6 7 7
14 14 13 13 12 12 12 11 11 10 8 7 5 4 3 3 4 5 6 7 8 7 6 5 3 2 4 4 3 3 4 6 8 9 10 10 11 11 11 11 11 11 11 11 13 17 19 17 14 11 7 4 2 3 4 5 5 5 5 6 8 8 8
11 11 11 10 11 11 11 10 9 8 6 5 4 2 1 2 4 5 7 8 8 8 8 6 5 3 3 3 3 3 4 6 8 9 9 9 9 9 8 7 7 7 8 10 14 18 16 13 10 7 4 3 3 4 4 5 5 7 7 8 9 9 11
9 9 9 9 10 11 11 10 9 8 7 6 5 4 3 2 3 4 5 5 6 6 7 7 6 4 3 3 3 3 4 5 6 7 7 6 6 5 4 3 4 7 10 14 15 12 10 8 6 4 3 3 3 4 5 6 7 8 9 9 10 11 11
9 9 10 10 11 11 10 10 9 9 8 7 6 5 4 3 4 4 4 4 4 5 5 6 5 4 3 3 2 3 4 5 4 4 3 3 2 2 2 3 6 10 13 14 11 8 6 5 4 3 3 3 4 5 6 7 8 8 9 10 10 10 10
7 8 8 9 9 9 9 8 8 8 7 6 5 5 4 4 4 3 3 3 3 4 4 4 4 3 2 2 2 2 3 3 2 2 1 1 3 5 7 7 8 9 10 9 7 6 5 4 4 4 4 5 5 5 5 6 7 7 8 8 9 9 10
3 4 4 5 6 6 7 7 7 6 6 5 5 5 4 3 2 2 2 3 3 3 2 3 3 3 2 2 2 3 3 4 4 4 5 5 6 7 8 8 7 6 6 6 5 5 4 4 4 4 5 5 5 5 5 6 7 7 8 9 10 11 12
3 2 1 2 4 5 5 6 5 5 5 5 4 4 3 2 3 3 3 3 3 2 2 1 2 2 2 2 3 4 5 5 4 5 7 7 8 8 8 7 6 5 5 4 4 4 4 4 4 3 4 4 4 4 5 6 7 8 10 11 12 13 14
7 6 5 3 4 4 4 4 3 3 3 3 3 3 3 3 3 4 3 3 3 3 2 1 1 2 3 3 4 6 8 6 4 5 7 8 8 8 8 7 6 5 4 3 3 2 1 2 2 3 3 4 4 4 5 6 8 9 11 12 13 14 15
9 8 7 6 5 5 5 4 3 2 1 1 1 2 3 3 3 3 3 3 3 3 3 2 2 2 3 4 5 6 7 6 4 4 6 7 8 8 8 8 7 5 4 3 2 1 1 2 2 2 3 3 3 4 6 7 9 10 11 13 14 15 16
12 11 10 9 8 8 7 6 5 4 3 3 2 2 3 4 4 4 4 3 4 4 4 3 3 3 4 5 6 6 5 5 4 4 5 7 8 9 9 8 7 5 4 3 2 2 1 1 2 2 2 3 3 5 7 8 10 11 12 13 14 15 16
15 14 13 12 11 10 9 8 8 7 6 5 5 5 6 6 7 6 6 6 6 6 6 6 6 6 5 6 6 6 6 5 5 6 7 8 9 9 9 7 5 4 3 2 2 2 1 1 1 1 1 3 5 6 8 10 11 13 14 14 15 16 17